GFSNW_925_spd_057.txt.gz
Wind_Speed
36 42 42 42 38 35 31 7 7 26 37 6 4 14 12 11 21 18 9 6 2 3 8 6 9 7 8 4 8 8 8 4 3 13 23 10 6 5 5 5 5 3 5 5
39 36 43 45 43 43 28 4 4 26 32 12 13 9 15 21 15 13 7 2 3 4 4 4 3 7 7 5 4 5 2 2 2 2 2 3 3 6 4 3 4 4 5 5
39 38 40 48 46 45 25 3 7 6 9 9 19 16 16 22 18 20 19 8 8 6 5 4 6 3 2 5 4 2 7 0 5 6 6 3 4 4 6 3 4 4 5 4
44 33 34 50 48 48 29 4 8 8 11 16 11 18 13 20 20 14 10 11 11 8 4 3 6 3 3 2 1 2 4 4 1 4 6 4 5 0 5 4 6 6 8 7
41 37 41 50 49 45 31 4 6 6 4 17 18 17 22 25 19 15 15 10 8 8 6 7 6 7 5 5 1 4 1 2 3 1 5 8 4 5 6 6 6 4 3 5
39 35 44 49 50 47 15 11 9 7 7 17 18 16 19 21 19 12 18 9 7 5 8 2 4 3 9 9 9 7 6 4 3 2 4 6 6 6 6 6 5 4 4 7
37 34 42 49 52 57 17 18 5 3 8 12 17 22 19 21 23 10 7 12 8 4 9 8 8 11 11 8 4 5 6 5 3 3 3 1 8 5 5 4 1 5 6 6
37 41 40 50 52 54 40 9 2 1 4 16 15 22 21 19 17 13 16 4 2 10 6 5 2 5 6 3 3 4 4 5 2 4 4 5 9 1 2 3 3 5 7 7
41 42 46 47 45 47 38 37 14 5 1 7 14 23 20 14 13 4 2 4 8 6 4 4 5 4 7 5 3 8 6 6 5 3 4 6 6 3 4 3 1 5 8 6
48 45 45 44 40 42 35 19 26 4 4 4 11 16 21 11 6 5 5 3 4 3 3 3 3 3 9 5 9 4 3 3 5 2 2 7 7 5 1 6 6 4 7 6
41 43 41 36 38 39 35 28 22 4 3 5 2 13 11 15 9 5 6 5 2 3 3 4 4 3 4 5 9 7 7 6 3 3 2 6 6 4 6 5 3 7 7 6
37 36 36 35 33 37 32 14 20 17 4 5 8 12 7 5 7 8 6 7 11 7 4 2 3 3 2 4 2 3 3 7 6 7 6 6 4 8 5 7 7 5 6 6
34 35 35 35 33 38 37 23 8 8 2 4 2 1 8 11 10 19 5 1 5 3 4 4 2 4 4 3 4 3 2 5 4 4 3 6 10 9 10 9 8 8 7 6
34 34 35 35 28 35 41 25 20 11 3 2 3 4 5 6 13 16 11 5 9 6 4 3 3 3 3 4 4 5 5 5 6 2 8 12 9 7 7 9 10 15 15 13
33 34 37 31 27 30 25 19 23 22 5 2 1 1 10 8 17 21 20 9 10 4 3 3 2 2 4 1 3 1 2 5 4 4 3 6 5 4 11 14 14 13 16 17
32 32 36 27 26 26 15 4 22 40 13 2 2 2 7 7 16 13 11 10 3 3 3 1 1 2 3 3 3 1 6 8 4 5 10 15 13 14 15 16 15 14 15 16
32 31 29 24 25 22 6 3 5 23 25 2 2 3 5 7 5 3 4 6 3 3 2 3 2 2 3 3 3 5 10 9 11 14 15 9 4 9 14 17 20 22 20 19
26 27 28 25 29 16 13 11 2 10 8 2 3 1 3 9 4 3 4 3 3 4 2 1 2 3 2 3 6 10 11 12 13 10 13 16 15 16 14 18 17 12 9 8
37 34 31 19 7 3 16 12 4 12 4 4 3 3 2 4 3 2 4 2 3 2 2 1 3 1 1 2 7 9 8 6 15 16 17 15 15 13 11 10 9 9 9 12
34 26 5 3 5 24 7 3 4 5 4 4 3 2 2 1 2 2 2 2 2 2 2 1 3 2 4 5 5 6 7 14 16 17 12 13 13 10 8 8 11 15 14 15
11 3 2 9 10 7 3 2 3 1 4 2 3 3 4 2 3 2 1 2 0 2 3 4 2 3 3 4 6 7 11 11 11 14 13 12 12 13 14 12 16 18 17 14
12 18 9 7 4 3 5 3 3 1 1 3 3 3 3 2 2 3 0 2 1 2 2 3 3 3 8 9 9 7 10 14 14 19 14 16 21 21 19 16 17 18 19 18
12 7 5 3 2 5 3 4 1 3 1 1 1 3 2 2 2 3 2 3 1 2 2 3 2 8 8 9 10 10 14 18 20 21 24 25 22 24 22 19 20 21 20 16
4 4 5 3 3 2 1 1 2 1 2 4 3 3 2 1 3 2 4 1 2 3 2 5 4 10 10 10 10 12 12 14 14 16 20 20 21 20 22 21 19 19 16 15
4 4 5 3 1 1 0 0 2 3 2 3 2 3 3 2 3 2 3 3 4 5 4 2 7 11 11 12 12 13 13 12 11 17 17 19 19 18 18 18 18 17 16 15
4 6 4 1 3 2 3 3 2 3 2 1 3 3 3 2 4 2 2 6 3 1 1 5 9 11 12 11 12 12 16 17 17 17 17 18 19 18 18 16 16 15 15 13
4 3 2 1 4 3 2 2 2 2 3 2 2 3 1 1 2 2 3 2 1 2 3 3 9 10 12 12 12 18 19 18 17 18 18 19 20 21 18 13 12 12 12 11

GFSNW_925_spd_060.txt.gz
Wind_Speed
46 42 38 40 40 36 34 10 7 27 34 8 3 14 12 10 20 5 6 3 6 5 9 8 9 10 9 5 10 9 6 5 4 8 4 3 4 5 6 5 4 1 4 5
44 44 44 44 45 45 32 7 4 26 30 11 12 7 18 15 13 5 4 5 5 4 2 2 7 6 0 1 6 8 8 2 2 8 7 4 2 6 5 4 4 6 5 6
45 45 44 47 45 48 34 5 8 5 9 8 19 18 18 21 14 19 7 7 6 6 2 4 5 3 3 2 4 8 7 5 7 8 7 3 4 5 5 6 3 4 6 6
47 45 43 46 46 51 36 5 8 10 13 17 17 19 12 17 15 13 9 8 15 9 5 3 5 2 3 2 4 4 5 5 4 5 3 3 1 3 2 4 4 5 7 7
46 47 45 44 45 51 26 4 4 7 5 17 20 21 22 25 20 10 17 15 13 6 8 8 7 7 4 5 1 4 2 2 2 3 3 3 3 3 5 4 3 5 5 6
48 44 52 38 44 48 10 19 10 4 15 18 18 21 22 24 22 14 21 15 14 10 10 9 7 8 9 10 10 6 7 6 3 4 3 4 6 6 7 5 5 5 5 5
49 47 46 41 53 42 9 20 5 5 8 14 19 23 19 24 26 21 15 20 15 8 5 5 5 9 9 6 5 5 6 5 3 3 3 2 7 4 6 6 3 4 7 3
48 47 45 43 50 30 34 17 5 1 7 12 13 22 19 13 18 17 21 7 4 8 5 4 4 5 5 4 7 6 5 5 3 4 3 5 8 3 6 5 2 4 7 5
46 43 41 40 45 37 43 17 10 3 0 10 12 16 20 14 13 7 6 1 0 5 4 3 5 5 5 4 4 6 8 6 4 3 4 6 7 4 3 5 0 1 5 5
43 40 40 34 45 35 45 22 16 3 2 4 16 10 16 16 6 4 4 5 3 4 3 3 3 4 8 6 9 5 3 3 5 2 3 7 8 6 1 5 6 5 5 4
41 38 38 37 42 39 42 30 14 6 3 5 4 4 7 14 15 6 4 4 3 3 3 3 4 3 6 4 7 8 7 6 3 3 3 6 6 2 7 6 3 6 5 5
39 38 38 39 40 44 42 12 26 21 2 4 15 16 15 15 19 8 4 5 5 5 4 2 2 1 2 5 3 2 2 7 7 8 6 4 3 4 3 5 7 4 7 5
41 42 35 43 40 40 36 15 17 6 4 5 3 4 5 3 17 26 5 1 5 4 5 5 3 3 4 4 4 4 2 4 4 4 2 3 4 4 5 5 8 5 5 7
40 40 39 39 38 38 33 21 17 15 3 2 3 4 3 7 10 23 14 11 8 6 3 3 3 4 3 4 4 5 5 7 6 4 3 8 5 3 8 10 10 13 12 9
37 36 37 36 34 36 22 17 33 14 3 3 3 6 9 5 8 20 22 13 7 1 3 3 3 2 4 1 3 1 3 6 5 5 12 5 4 5 9 12 10 10 16 14
31 32 31 32 29 29 20 2 17 28 11 3 2 3 6 12 16 18 13 4 4 3 3 2 3 4 2 4 3 2 2 1 5 6 7 13 11 9 9 15 12 13 15 15
30 30 30 28 24 29 6 5 4 32 17 1 3 2 3 3 5 3 2 5 4 3 3 3 2 4 2 3 3 5 4 11 15 18 18 11 1 7 10 16 17 21 20 19
26 26 28 20 26 19 7 8 13 29 8 2 2 3 2 7 3 3 2 3 3 4 2 3 1 4 2 2 3 7 8 12 11 6 9 13 15 14 12 19 19 15 11 12
27 27 24 22 9 4 8 7 5 8 8 3 2 3 2 3 3 2 3 2 3 1 3 3 4 1 3 4 12 12 13 6 13 14 18 15 15 14 12 13 11 15 11 12
28 18 7 3 7 15 18 5 2 3 2 1 2 1 3 3 2 2 2 2 2 3 3 1 3 2 1 1 4 7 13 18 18 19 10 13 13 13 12 10 10 11 12 14
12 5 2 13 23 8 2 2 3 2 1 1 2 3 3 3 4 3 1 2 1 3 2 4 2 2 3 3 6 10 14 14 6 11 12 11 14 14 14 13 16 17 16 15
8 9 12 6 4 2 4 2 2 2 3 1 3 2 3 2 3 3 2 3 2 3 2 3 2 1 7 7 7 8 11 12 12 19 16 20 20 21 20 18 17 18 21 22
11 5 5 3 1 3 4 4 0 3 2 1 2 2 3 2 4 3 3 3 2 2 2 3 3 5 8 9 9 11 12 18 19 18 24 25 22 22 25 21 20 22 21 18
3 4 5 2 3 3 1 1 2 1 2 4 5 3 3 2 3 2 2 2 2 2 2 4 4 11 10 9 10 14 12 12 15 15 22 22 23 21 21 21 23 23 18 16
4 3 5 4 1 2 1 1 1 2 2 3 3 3 3 2 3 2 2 2 1 4 3 2 5 10 12 12 12 12 11 11 12 18 19 21 22 21 19 19 19 21 20 17
4 7 3 1 4 3 2 3 2 4 2 2 3 3 3 2 3 2 1 5 4 2 1 3 9 12 12 12 12 11 15 17 18 18 20 20 20 19 19 20 18 18 17 16
5 4 3 3 4 3 2 3 3 3 2 2 3 4 1 2 3 2 3 2 2 1 2 5 11 12 12 12 13 16 19 19 19 20 19 19 20 23 19 15 13 13 14 15

GFSNW_925_spd_063.txt.gz
Wind_Speed
44 42 41 35 40 33 31 10 7 28 38 8 5 14 8 6 18 9 4 4 4 4 7 7 9 10 8 7 9 9 6 6 6 9 3 4 4 7 6 4 4 2 4 6
48 45 42 38 38 40 31 6 7 29 31 13 14 8 14 9 10 7 7 5 5 4 4 3 7 8 6 7 8 9 7 1 2 6 4 2 5 5 4 4 4 6 5 6
51 48 49 46 37 46 27 5 8 6 10 15 20 20 16 21 12 13 3 3 3 2 3 3 4 6 2 5 8 1 9 4 7 7 8 3 3 4 5 5 3 4 6 6
54 52 51 51 45 45 35 6 10 7 12 22 18 21 16 23 15 14 16 5 8 2 3 2 4 3 2 3 5 4 4 6 5 4 4 4 4 4 5 6 6 6 7 7
56 54 54 52 54 48 31 9 6 6 3 18 24 20 22 26 22 9 9 11 7 13 10 7 5 6 4 5 2 5 1 4 3 3 2 3 3 6 5 4 3 6 6 6
58 55 55 56 58 46 17 18 2 5 10 19 21 27 22 24 21 18 16 20 13 10 13 8 11 7 3 6 10 6 6 6 4 5 1 3 5 8 8 6 6 6 6 9
58 56 55 55 53 50 22 28 3 4 12 14 23 23 18 24 26 19 19 22 12 5 5 4 4 6 7 6 5 3 7 5 3 2 2 1 7 3 4 6 3 5 2 2
57 55 53 50 53 49 46 24 7 2 3 15 15 20 24 17 18 18 20 7 15 3 4 2 1 5 4 3 6 3 2 6 3 4 4 5 5 4 7 7 5 2 6 6
56 53 51 51 48 47 39 13 23 0 2 13 8 22 20 18 16 10 16 9 1 4 4 3 6 5 6 4 3 5 5 6 5 3 5 7 7 3 3 5 4 5 5 7
53 50 48 48 48 37 40 6 14 4 3 3 13 12 16 13 11 8 5 7 3 3 2 3 4 4 5 7 10 6 3 3 5 3 3 7 7 6 3 5 7 7 7 6
50 48 46 43 43 36 36 12 15 4 3 4 3 4 7 11 14 10 5 5 2 3 4 4 4 3 5 4 6 8 7 7 3 3 3 6 6 4 9 6 2 5 5 4
47 45 40 40 40 34 35 10 20 8 2 3 8 16 18 12 16 9 5 5 6 5 4 1 3 2 3 2 3 1 3 7 6 9 6 4 3 4 3 6 7 5 7 6
43 42 42 39 36 34 35 19 32 6 2 4 2 5 7 7 15 32 6 2 2 3 3 4 2 3 4 3 4 3 3 3 4 4 4 3 1 1 3 4 6 7 6 12
40 39 37 37 37 37 40 21 26 19 2 3 4 2 4 4 9 29 27 7 7 5 2 2 3 3 4 5 5 3 4 8 6 1 1 4 3 2 5 7 7 10 8 7
40 38 37 32 34 35 28 21 24 30 3 3 4 7 2 6 11 23 19 13 7 3 2 2 2 2 4 1 3 4 5 7 6 6 11 5 6 7 6 9 7 7 16 11
38 35 35 32 41 33 25 3 18 24 14 3 3 3 4 9 15 13 10 6 4 3 4 2 1 0 3 3 4 3 2 3 4 6 9 5 12 8 3 9 8 9 11 14
38 37 34 37 36 30 5 4 7 31 14 3 4 3 3 3 3 2 3 3 2 3 3 2 2 1 3 2 3 1 2 5 10 15 15 8 3 6 9 13 16 19 20 19
39 36 35 35 31 22 6 6 17 40 5 3 2 3 3 5 3 2 3 3 2 4 2 2 2 0 2 1 2 3 3 10 9 6 7 10 16 15 13 17 18 15 13 13
37 36 32 27 12 4 3 14 30 21 4 3 2 2 2 2 2 2 3 1 3 3 2 2 4 3 5 7 5 8 10 3 12 13 15 16 17 15 14 14 13 16 12 12
37 25 5 3 8 21 22 10 1 2 2 1 3 3 2 2 1 2 2 2 3 3 2 3 2 3 2 2 5 8 7 13 17 19 9 14 13 13 12 12 10 12 11 15
10 3 3 19 30 9 3 1 1 2 2 3 1 2 1 4 3 3 1 2 1 3 2 4 1 3 3 3 8 11 11 12 5 8 10 11 17 16 15 12 14 18 18 16
13 7 13 8 3 3 3 2 2 3 5 1 3 2 2 1 2 3 2 3 2 3 3 3 3 3 3 5 10 10 9 11 12 16 16 16 17 19 18 17 18 18 20 24
7 3 3 3 1 4 6 5 3 3 3 3 2 2 2 1 3 3 3 3 1 0 1 3 3 3 6 8 10 11 12 14 15 16 20 24 22 22 24 20 20 22 20 18
0 3 5 3 2 2 1 2 2 1 2 5 4 2 2 0 3 1 4 0 2 2 1 5 1 6 8 8 9 14 13 14 15 15 19 20 23 21 22 22 22 23 18 17
3 3 4 4 2 2 1 1 2 3 2 2 2 3 3 3 4 2 3 1 1 3 4 1 4 9 10 10 10 13 13 12 12 17 17 20 23 22 20 18 19 21 22 20
4 5 3 2 1 2 3 3 2 4 2 2 3 4 3 2 3 2 1 4 4 1 1 1 8 10 10 11 11 11 14 16 18 20 22 21 20 20 19 18 19 19 19 18
3 3 2 1 3 3 2 2 3 3 2 2 3 4 2 2 3 2 3 2 2 2 2 4 8 11 12 12 13 16 18 19 19 20 20 20 20 23 20 17 14 13 14 14

GFSNW_925_spd_066.txt.gz
Wind_Speed
52 47 42 40 38 35 33 8 8 19 39 13 10 16 7 7 17 4 3 2 4 4 6 6 7 10 9 9 9 9 6 5 5 8 1 3 4 7 6 4 4 2 4 6
54 49 45 44 42 40 31 6 6 26 32 14 17 15 14 4 8 8 5 4 4 3 2 3 7 7 5 10 8 9 8 1 1 7 5 2 3 5 4 4 3 6 5 6
56 52 49 48 48 45 32 7 7 7 12 15 19 22 17 21 7 7 3 2 2 0 3 4 3 7 3 7 7 6 8 4 7 8 8 5 4 5 5 6 3 4 6 6
60 56 53 52 53 49 34 5 6 6 13 20 20 23 16 22 16 12 9 3 5 4 3 2 4 3 3 2 7 4 7 7 5 4 4 5 6 5 8 7 6 6 7 8
63 60 57 55 55 48 23 2 4 5 4 19 25 17 24 27 25 10 12 8 11 7 5 6 2 2 2 5 4 6 2 5 4 3 2 4 3 7 6 6 4 6 5 7
65 62 60 58 57 50 10 20 8 2 13 18 19 27 23 20 20 18 8 21 12 7 16 13 10 5 4 2 4 8 8 6 4 4 3 3 6 8 9 7 5 7 8 10
67 64 63 62 62 61 16 22 5 4 7 13 21 24 19 25 26 9 19 10 11 5 1 2 3 3 2 7 2 4 7 6 3 3 2 0 7 1 4 9 7 6 5 4
67 65 64 66 65 59 36 22 9 3 11 12 15 21 25 16 18 17 12 14 9 2 1 4 5 4 2 1 4 3 1 6 3 5 4 5 5 4 7 7 9 6 6 5
67 65 64 64 62 54 39 30 20 4 2 17 14 19 23 12 12 7 8 11 2 4 2 2 5 6 6 5 3 4 5 5 4 3 5 7 8 4 4 3 8 7 8 8
66 64 63 60 57 50 41 27 35 5 1 4 15 14 14 14 8 2 6 12 5 5 2 2 4 6 4 6 9 6 3 3 5 2 3 7 7 4 4 6 8 5 9 7
63 62 59 56 52 48 41 27 36 21 5 9 5 2 10 12 17 11 4 8 4 3 6 4 4 4 7 3 4 7 7 7 3 3 3 6 8 5 9 7 0 5 6 7
60 57 52 51 48 47 39 12 41 23 4 3 7 15 18 17 9 11 9 7 7 7 4 2 3 2 2 5 4 0 3 6 7 9 7 4 7 5 4 5 5 7 7 5
54 49 47 47 48 45 41 21 29 11 2 5 3 6 13 15 19 29 6 2 4 4 2 4 3 3 4 4 5 3 3 3 3 3 5 7 5 3 2 5 5 5 5 10
45 44 44 44 44 44 27 22 13 6 4 2 5 3 5 9 17 22 17 7 7 5 2 2 3 3 3 4 3 5 4 8 6 4 5 2 6 6 6 4 6 9 8 6
42 42 41 42 41 35 29 20 20 11 3 2 4 10 4 2 8 15 23 10 5 3 2 2 3 1 4 1 2 3 5 7 6 7 9 6 5 9 8 8 6 8 14 9
44 44 41 38 36 35 19 2 16 21 13 4 4 5 2 4 6 7 5 8 3 3 4 2 1 1 3 3 4 4 3 1 1 2 6 3 6 7 4 7 7 7 10 13
39 39 38 36 34 32 4 4 11 25 20 1 4 4 1 3 3 2 3 4 3 3 3 2 3 2 3 3 4 2 2 3 4 9 8 5 3 5 7 12 12 19 18 17
34 33 31 31 36 25 6 5 31 31 9 2 2 4 1 3 1 3 2 3 2 4 3 2 3 2 1 1 4 1 2 8 9 7 4 6 13 12 12 13 16 15 13 14
29 34 39 31 11 4 3 7 35 9 6 3 2 2 1 3 2 2 2 1 2 2 2 2 2 1 4 7 7 7 8 6 10 10 9 12 17 14 12 12 10 15 12 13
41 29 5 2 6 22 30 12 4 2 0 1 3 2 1 1 1 2 2 1 3 3 3 3 2 3 4 6 5 8 12 14 18 12 7 9 8 13 13 14 12 12 11 13
11 3 2 12 32 6 1 3 3 2 2 3 3 3 2 3 3 0 2 2 1 3 3 4 2 3 4 2 4 6 9 7 6 10 9 7 9 13 16 13 11 18 20 15
5 12 17 10 4 1 3 2 3 4 5 4 4 4 2 1 4 0 2 3 2 1 3 3 2 3 5 4 6 7 8 10 10 11 15 13 13 15 15 14 16 18 18 23
6 5 4 4 1 4 5 4 2 3 1 2 2 3 3 2 2 3 3 4 2 1 2 3 1 1 3 6 9 10 11 14 15 15 19 22 21 22 23 19 17 22 20 20
3 1 4 2 3 2 1 2 2 1 1 3 2 3 3 1 2 1 3 2 2 2 1 4 1 3 6 7 8 12 12 13 15 14 16 17 20 20 22 21 22 23 19 17
3 2 3 4 0 2 0 1 2 3 1 0 2 3 3 2 3 2 3 2 1 2 3 2 2 6 8 9 10 11 11 11 11 14 14 19 22 23 20 18 20 21 22 20
1 5 2 2 4 3 4 3 3 3 1 1 3 3 3 3 3 4 2 3 1 1 2 2 5 9 9 10 10 10 11 13 16 19 21 22 22 21 19 18 19 20 20 20
4 4 4 2 3 4 3 4 3 3 2 2 3 4 3 1 3 2 3 2 2 2 2 5 7 10 11 12 12 13 17 18 20 22 21 21 22 22 20 18 14 15 16 17

GFSNW_925_spd_069.txt.gz
Wind_Speed
49 47 49 47 42 36 30 10 9 21 40 13 10 20 21 12 21 3 4 2 3 3 5 6 6 10 6 9 12 10 6 4 5 6 2 2 2 6 6 3 4 1 2 6
51 50 50 52 46 42 31 4 5 25 34 14 16 15 21 16 13 12 6 4 5 0 2 3 5 6 4 9 9 11 8 2 3 2 1 1 3 4 3 4 3 7 5 5
54 52 52 57 52 47 35 5 7 5 12 16 21 20 21 24 19 8 8 4 3 1 3 3 2 5 3 7 5 6 9 4 6 8 8 5 4 6 7 6 3 5 7 10
56 55 55 60 56 51 33 7 5 7 14 20 22 20 15 26 16 14 8 6 6 4 4 2 3 2 2 2 5 3 5 6 6 5 4 5 5 5 11 10 7 7 12 11
59 56 59 62 59 55 26 7 5 6 5 23 23 19 22 28 27 14 14 7 13 12 4 6 3 5 3 1 0 5 3 4 6 4 3 6 4 6 8 7 4 9 8 9
59 59 63 68 64 62 12 15 7 4 17 18 19 26 24 18 20 16 11 15 6 10 18 8 2 3 4 3 1 3 3 6 4 5 1 4 4 7 10 5 5 7 10 11
60 61 68 71 69 68 19 24 5 4 9 14 19 22 21 26 23 15 11 11 17 5 4 3 2 3 4 4 6 5 5 5 2 3 1 4 5 2 2 8 9 10 8 7
58 60 72 72 71 67 30 26 11 3 8 15 13 20 25 9 16 22 16 5 5 5 3 3 1 4 6 2 0 5 3 5 3 5 5 4 3 5 6 7 14 8 12 7
62 63 73 72 67 65 41 25 28 1 4 9 13 16 22 17 14 8 10 5 4 4 2 3 6 9 2 4 2 2 4 4 3 3 5 9 6 4 6 5 12 8 10 9
60 66 72 69 65 63 48 16 30 5 2 3 1 11 16 17 7 8 4 11 3 4 2 2 3 4 11 7 5 5 3 2 6 3 3 6 5 4 6 5 10 3 9 8
64 70 70 65 62 61 44 23 24 20 2 1 2 5 9 14 15 10 5 6 4 2 4 4 4 3 5 5 3 5 7 7 4 3 2 8 7 4 9 7 3 3 7 9
65 69 66 62 58 57 42 14 21 16 2 2 2 13 24 18 19 7 12 6 6 7 4 3 3 2 1 6 11 3 4 5 5 9 7 4 11 6 6 4 4 5 8 8
65 64 61 57 55 49 39 20 23 11 2 12 10 9 13 12 24 32 5 1 5 5 3 4 3 5 5 4 5 4 4 3 3 2 5 6 5 3 3 5 5 4 5 14
59 57 54 51 47 44 34 22 22 17 2 4 6 10 11 20 27 30 17 8 6 5 2 3 3 3 4 5 3 5 3 9 6 3 4 3 6 8 2 4 5 7 9 10
54 51 47 45 43 42 29 18 21 31 3 3 3 12 11 12 28 22 22 6 4 2 3 2 3 2 3 0 1 2 5 6 5 7 7 5 6 7 11 10 10 13 13 12
47 46 43 41 40 38 25 3 18 32 19 2 2 3 5 12 16 16 15 12 3 2 3 2 1 1 3 4 5 4 5 4 2 3 1 1 3 5 3 7 8 9 12 15
44 42 41 43 43 31 5 4 7 40 12 2 3 3 3 6 6 3 3 2 2 2 2 2 3 2 3 1 4 3 2 2 2 3 6 1 3 4 6 11 12 16 16 17
44 44 42 41 37 21 4 2 22 30 5 1 3 4 0 2 3 4 2 3 2 2 3 1 3 2 1 3 4 3 4 6 5 4 4 2 9 10 11 13 15 16 14 14
44 42 39 31 10 3 5 30 28 8 4 2 3 3 1 3 2 3 3 1 2 1 3 3 4 2 5 5 7 10 12 10 12 8 8 4 8 12 12 14 12 17 15 15
41 33 5 4 8 22 33 8 2 2 2 1 2 2 2 1 1 2 3 1 3 4 3 4 3 3 4 3 5 6 4 6 13 9 7 9 9 12 13 9 8 12 14 13
9 4 3 10 30 3 3 3 4 3 3 3 2 3 3 4 3 3 2 2 1 4 3 5 2 2 2 8 3 4 7 11 6 3 4 5 10 14 15 13 12 15 17 16
7 11 13 9 3 2 3 4 3 2 4 3 4 3 2 1 2 3 2 2 1 3 3 3 3 1 4 3 3 7 8 9 10 9 13 13 14 15 14 13 14 19 22 24
5 4 3 3 1 4 4 7 3 4 4 4 3 3 2 2 3 3 2 2 1 1 2 2 2 2 2 5 8 11 11 13 14 16 20 22 22 22 22 18 20 21 21 21
3 2 3 2 4 3 3 1 4 2 2 4 4 3 2 2 2 2 2 1 1 2 2 2 2 4 6 8 8 11 12 12 14 14 16 17 20 21 23 23 23 25 19 15
2 1 2 1 1 2 1 1 1 3 2 3 3 3 2 2 3 1 2 2 2 3 2 1 3 6 7 9 10 12 12 12 12 13 13 18 22 23 23 21 21 22 21 20
2 5 2 3 2 2 3 3 4 4 2 1 2 3 3 2 2 3 4 2 3 2 2 2 5 8 9 10 11 12 12 13 15 19 21 22 22 22 22 22 20 21 21 21
4 3 4 3 4 4 3 3 3 3 1 2 2 4 4 1 4 3 3 3 2 2 3 5 7 9 10 12 13 13 18 19 21 23 24 25 25 24 24 20 17 18 18 20

GFSNW_925_spd_072.txt.gz
Wind_Speed
47 47 45 42 41 41 36 13 6 17 33 11 6 19 29 11 24 15 7 4 5 4 5 12 16 18 13 19 22 23 19 8 9 12 4 5 10 12 13 6 7 3 4 8
50 50 49 45 46 49 31 6 4 14 35 12 16 25 28 25 17 26 10 9 6 2 3 6 14 9 5 13 19 19 16 11 9 9 7 5 8 11 12 7 3 11 9 8
52 52 52 51 51 55 32 6 6 7 12 19 29 22 23 31 26 18 20 7 5 4 3 5 2 5 3 10 20 5 17 14 17 14 14 10 13 16 15 15 10 12 13 17
54 56 54 54 55 61 30 8 8 15 12 18 27 29 21 25 26 27 19 19 15 12 4 3 3 2 3 4 4 8 12 16 17 17 15 12 16 14 16 17 18 17 14 17
56 56 58 58 60 66 22 9 7 15 10 28 30 25 27 31 32 24 25 21 21 11 11 3 5 4 7 1 3 6 6 11 11 13 11 12 15 16 15 17 16 14 17 18
51 59 59 61 64 67 9 19 22 13 17 22 19 24 29 30 27 28 29 22 17 23 18 6 0 3 5 6 4 4 3 9 6 12 7 6 8 15 15 15 13 16 16 17
45 54 59 65 68 72 22 26 18 8 14 17 20 28 34 29 27 27 17 22 20 7 8 3 3 8 8 8 8 9 4 9 5 6 4 8 9 3 15 18 17 16 16 18
48 49 59 66 70 73 36 34 18 9 11 17 28 24 26 29 19 22 26 17 19 7 7 7 7 3 7 12 15 10 13 7 4 5 10 10 5 5 9 11 16 15 15 18
51 52 56 66 72 73 36 35 27 9 11 17 21 20 21 22 19 18 22 18 7 10 5 5 9 8 10 6 4 2 7 9 7 4 6 8 5 12 10 5 14 11 11 12
54 52 57 62 73 71 36 27 33 17 10 9 17 17 15 23 21 16 14 16 9 13 7 3 5 6 6 12 5 4 4 3 10 10 5 5 4 7 10 9 13 2 8 7
55 54 59 66 75 71 37 24 34 22 7 1 5 13 15 20 20 17 14 12 8 9 8 5 5 4 8 7 14 12 6 6 4 5 4 9 10 10 10 12 3 6 7 9
54 50 63 69 73 70 36 20 25 24 6 1 3 2 3 4 14 16 15 15 17 7 8 5 4 2 2 10 7 7 9 9 5 8 6 3 18 13 15 4 6 6 9 9
50 57 63 69 68 67 31 21 23 19 4 6 6 7 4 9 21 21 10 12 11 12 7 5 3 5 7 6 10 11 8 5 6 5 9 11 9 14 3 6 4 3 5 11
48 60 65 65 64 62 29 25 23 19 6 6 10 4 9 14 18 26 22 14 4 7 6 4 3 3 7 6 10 11 12 11 12 12 12 6 9 13 13 11 7 7 5 10
55 60 61 59 59 45 28 20 23 23 6 2 9 12 17 16 19 27 25 17 14 5 5 3 4 4 2 2 2 9 7 9 8 7 14 8 10 3 12 14 15 13 14 13
56 56 56 56 50 40 29 4 12 22 16 1 2 0 6 15 28 25 21 16 9 7 7 5 5 2 4 4 9 13 15 11 10 5 1 2 4 4 2 9 7 10 13 14
56 54 52 51 45 36 9 4 7 26 9 2 3 3 4 15 9 14 11 12 11 7 5 4 4 4 4 2 9 8 8 9 7 4 2 5 4 1 1 3 7 8 10 13
52 51 51 43 34 24 2 3 13 33 8 3 4 2 3 4 5 7 8 9 10 5 4 1 3 3 1 4 10 14 7 6 7 9 6 1 6 5 7 10 10 13 12 13
50 47 40 29 11 7 3 13 33 19 5 2 3 3 4 2 2 3 3 4 4 2 3 4 5 4 6 6 12 10 13 7 5 5 3 4 5 9 10 12 11 13 13 13
49 34 5 3 7 10 26 10 3 4 4 3 3 2 3 3 1 3 3 1 4 3 4 6 5 6 9 4 4 5 4 6 7 4 4 5 6 7 9 11 10 9 12 15
9 3 2 7 22 8 1 3 3 3 3 3 5 8 4 1 3 3 2 3 2 4 4 7 5 5 3 7 5 4 2 4 4 3 3 4 9 11 10 12 12 13 16 15
3 6 12 5 2 2 4 3 2 3 4 4 3 5 5 3 2 3 2 2 2 5 4 5 5 3 6 5 6 7 6 6 9 9 12 11 13 13 13 13 13 19 23 25
9 4 3 3 1 1 2 8 4 4 3 3 1 2 2 2 2 4 3 4 2 1 1 2 2 5 6 7 8 10 10 12 14 16 19 21 21 20 20 17 20 23 23 24
2 3 4 1 3 3 3 3 3 2 2 5 4 2 1 1 2 1 3 3 2 2 2 3 2 5 6 8 9 11 13 14 17 16 16 17 19 20 22 22 21 24 22 21
4 4 3 1 2 2 3 3 2 2 3 3 3 3 2 3 2 3 3 2 4 5 3 2 3 6 8 10 10 12 12 12 13 14 14 17 21 22 24 23 23 24 24 23
3 5 3 4 1 2 3 4 2 4 1 1 3 3 2 3 2 3 5 2 4 2 2 3 6 9 10 11 12 12 13 14 15 19 22 24 23 23 26 26 25 23 22 22
3 4 5 4 3 4 3 4 4 4 1 2 2 3 5 2 4 3 4 3 2 4 5 6 10 11 12 12 13 14 18 19 22 25 26 26 26 26 26 22 21 22 21 21

GFSNW_925_spd_075.txt.gz
Wind_Speed
47 45 44 44 39 37 37 11 5 22 32 10 4 13 31 28 27 29 21 19 16 18 13 11 14 14 19 12 22 26 23 11 11 17 17 20 18 19 18 10 13 8 11 12
49 49 47 46 45 42 34 5 4 24 37 11 14 31 37 28 29 29 23 16 16 9 10 7 16 18 10 7 22 23 20 14 13 15 13 7 12 17 14 16 13 14 10 8
50 50 50 49 50 49 35 6 7 7 13 17 27 33 31 28 33 33 25 21 18 15 11 10 3 9 1 8 14 12 16 16 19 15 17 15 19 19 19 18 12 13 16 18
45 53 53 52 52 55 39 8 10 16 13 20 27 23 25 32 32 30 29 26 24 18 11 12 11 4 5 3 2 5 15 23 19 22 18 14 17 18 20 20 19 19 17 19
42 47 55 55 55 58 26 8 11 16 15 25 29 26 27 29 31 30 34 24 25 18 18 12 12 9 6 3 5 10 17 16 22 19 18 18 17 15 17 17 17 18 19 20
45 45 47 57 61 61 10 22 27 11 17 22 20 24 28 33 28 29 30 28 22 23 19 9 11 8 2 1 9 10 12 15 15 16 18 19 16 17 17 18 17 14 17 16
48 48 48 59 64 71 23 23 15 13 13 20 22 26 28 30 35 23 27 24 29 21 16 6 1 2 6 3 13 10 6 13 12 7 2 14 10 14 18 20 19 17 18 17
49 49 49 47 65 71 40 24 21 14 12 17 26 26 26 26 23 24 22 28 20 17 8 8 6 2 4 11 20 18 12 9 7 6 12 14 18 8 12 15 17 17 18 16
50 52 51 51 59 71 52 26 36 12 14 20 22 18 22 19 21 23 25 19 6 14 9 8 15 9 10 11 5 10 13 10 9 4 12 17 13 11 10 14 14 17 16 14
50 52 50 50 53 71 56 26 41 19 13 13 14 8 17 20 18 18 20 20 16 19 11 9 11 12 13 15 17 6 4 4 12 11 7 7 9 8 9 11 13 7 5 7
50 52 49 47 62 70 55 30 41 25 10 5 19 8 15 16 16 16 19 15 13 10 10 8 8 8 12 14 16 19 10 8 5 8 7 9 8 7 11 13 15 6 8 8
50 52 50 45 68 68 52 22 36 30 9 3 3 1 7 13 25 16 14 23 16 10 10 7 8 5 5 12 10 15 16 9 6 8 5 8 16 12 16 12 9 6 7 6
50 53 52 50 64 63 39 34 32 19 5 5 4 7 6 3 7 12 7 14 15 17 13 7 6 6 8 7 11 11 12 14 11 16 18 16 12 11 11 7 7 5 4 5
55 52 50 57 58 53 37 32 33 20 5 3 6 15 12 7 6 14 15 15 19 8 9 7 5 5 9 9 10 12 11 9 11 14 16 15 7 10 10 11 8 9 8 10
51 51 53 58 55 43 31 29 30 24 7 5 8 10 17 14 11 15 19 17 14 7 9 4 6 8 4 6 8 10 12 15 10 8 10 13 15 6 11 12 14 11 10 10
51 51 54 58 52 45 34 4 8 21 8 1 2 5 19 19 16 15 17 15 12 10 9 9 10 14 9 5 11 14 16 14 14 13 7 5 3 1 3 6 8 10 9 9
50 54 62 54 45 31 8 4 18 21 10 1 3 3 4 22 18 11 9 12 9 7 9 8 10 11 6 6 10 11 11 13 15 9 3 7 7 1 1 2 1 1 2 4
55 61 56 45 33 23 10 13 32 29 9 2 2 3 1 7 8 8 10 8 10 4 6 3 9 6 3 8 13 18 17 10 4 6 8 7 3 1 2 3 2 6 6 7
57 48 41 30 9 3 6 13 29 13 1 4 3 2 1 4 6 8 9 10 8 4 7 5 5 6 7 7 11 13 12 17 10 4 3 2 2 3 3 4 6 7 8 9
48 33 7 3 9 20 31 8 5 4 3 4 3 1 3 2 3 4 5 5 5 4 5 7 4 6 11 6 4 5 8 3 2 4 5 4 3 4 5 5 6 8 9 12
10 3 3 21 26 9 1 3 3 3 3 4 3 8 4 6 3 2 1 4 5 7 7 8 5 6 6 6 5 5 5 4 3 3 4 5 4 7 10 10 11 11 14 15
8 16 17 10 2 3 3 4 3 4 4 6 4 5 3 2 3 2 4 3 2 5 8 5 4 4 6 5 5 6 7 8 10 11 12 13 14 14 14 14 14 19 24 24
11 5 3 3 0 3 4 5 3 3 2 3 3 3 3 3 1 2 2 6 3 3 2 2 3 6 7 7 7 11 12 14 15 17 19 22 20 22 20 15 20 23 24 24
3 2 5 2 2 2 4 2 5 4 4 2 4 1 1 2 4 4 4 2 3 4 4 3 2 4 7 9 9 11 13 15 16 17 17 17 19 20 22 21 22 25 24 24
4 2 3 4 3 4 2 1 2 2 3 2 1 2 2 1 1 3 4 3 3 5 3 3 4 7 8 9 10 11 11 12 13 14 14 17 22 23 25 26 28 28 27 27
3 6 1 5 3 4 3 5 3 4 3 2 1 1 1 3 2 3 4 2 4 3 3 5 7 10 10 11 12 13 12 14 16 20 23 25 25 25 27 28 28 27 26 24
3 4 7 7 4 6 4 4 4 4 2 1 1 4 4 1 3 3 4 4 5 6 7 7 10 12 13 13 14 14 19 21 23 25 27 27 26 26 26 23 23 24 23 22

GFSNW_925_spd_078.txt.gz
Wind_Speed
47 46 44 42 39 35 31 13 7 21 33 10 8 20 30 36 31 27 30 24 27 23 19 12 20 16 10 1 16 24 24 6 13 14 17 17 17 17 17 9 9 6 6 9
46 46 45 44 42 39 27 5 4 21 37 12 18 19 31 30 26 30 28 28 26 27 14 17 13 15 11 7 13 11 16 16 11 16 19 17 18 21 17 13 12 13 8 6
47 46 46 46 45 43 35 4 6 7 14 13 23 23 24 26 28 31 31 26 25 27 8 21 6 11 10 4 8 9 2 17 16 11 12 12 16 18 16 17 10 9 12 15
46 48 48 48 47 46 38 6 8 12 12 18 19 21 15 29 26 30 30 23 27 15 23 18 12 4 4 7 11 10 4 13 20 19 19 18 18 20 19 20 16 16 12 17
42 43 45 45 50 49 34 6 7 14 12 22 25 23 28 29 23 27 34 29 25 18 24 17 15 13 3 4 8 10 7 13 17 18 19 21 18 18 19 20 19 19 16 17
42 43 44 43 47 52 19 19 20 9 15 18 22 25 26 29 22 23 30 29 24 19 17 25 6 10 14 9 4 8 7 7 13 15 18 18 18 16 13 12 13 11 13 11
45 46 47 47 47 56 25 17 13 13 8 20 20 25 29 28 27 23 25 26 27 23 13 7 6 6 1 11 8 3 10 11 8 8 2 22 10 11 14 11 12 14 14 10
47 48 48 47 48 51 41 23 17 10 13 17 24 24 21 25 22 22 23 25 24 18 14 4 4 5 3 4 9 13 9 9 4 6 12 12 17 9 6 8 13 12 12 13
49 50 50 50 49 51 48 32 31 13 14 17 21 20 20 17 18 18 21 21 15 14 4 6 6 7 6 9 7 11 14 16 10 3 5 10 7 10 2 9 12 13 13 12
53 53 51 51 50 50 43 28 37 19 12 15 12 8 13 17 17 14 16 17 17 11 8 5 6 10 11 9 11 6 7 7 14 9 5 4 8 13 11 16 6 13 8 5
48 52 55 53 50 51 43 33 43 28 9 8 22 5 11 15 15 12 12 12 17 6 8 5 6 6 9 9 14 11 9 6 6 6 4 11 3 5 15 6 7 6 10 4
46 48 51 54 51 53 50 15 41 41 10 2 4 27 26 18 16 11 11 18 14 9 9 7 4 6 6 10 8 12 8 10 5 6 5 4 4 7 7 5 5 7 5 4
45 47 49 52 50 53 45 23 39 29 6 1 4 10 13 6 12 16 7 10 17 16 8 5 5 5 7 4 9 12 12 18 9 7 9 11 7 13 10 6 6 3 2 4
43 46 48 48 50 49 45 30 38 17 4 4 7 6 12 7 3 4 8 8 4 5 8 10 5 4 8 8 8 10 7 6 10 10 9 12 11 16 12 4 3 3 4 5
44 47 47 48 48 45 36 36 36 26 4 5 3 14 17 11 7 6 11 9 7 2 4 5 7 5 5 5 9 10 9 12 6 2 5 5 6 7 1 4 10 14 6 6
47 47 45 44 44 47 36 4 29 20 14 3 5 1 9 15 13 9 10 11 7 2 3 5 6 11 8 2 4 8 10 9 7 7 2 3 5 5 8 5 7 6 4 5
46 44 43 56 47 37 8 5 17 23 8 2 3 2 2 14 12 9 6 8 4 4 4 4 6 8 5 2 6 10 11 11 12 10 8 2 2 5 6 6 7 6 6 6
56 57 52 43 36 29 12 32 36 22 5 1 3 2 2 13 7 6 6 4 2 4 3 4 6 3 4 6 11 15 16 15 9 5 4 4 7 5 6 5 4 7 7 7
57 54 43 35 15 4 8 31 14 10 6 4 2 3 2 5 4 4 5 4 2 1 3 3 4 5 7 8 13 13 14 17 17 10 7 8 4 7 5 5 7 9 8 9
42 27 7 3 6 32 26 9 3 2 2 3 3 3 3 3 1 2 5 5 5 4 5 2 3 5 12 8 3 8 4 8 5 10 6 5 6 6 5 8 8 8 10 14
8 3 4 28 16 4 2 3 3 3 3 4 4 6 5 2 2 1 4 4 3 2 4 5 5 5 3 6 8 6 10 11 10 12 9 8 9 9 12 15 17 16 17 16
10 18 17 6 3 2 2 4 3 4 6 6 6 5 4 4 3 5 3 3 2 6 9 5 3 4 7 7 8 10 12 13 15 15 16 17 18 16 16 15 15 19 23 22
12 5 4 2 1 3 5 6 4 3 5 4 4 4 4 3 4 3 2 5 4 4 4 3 3 6 8 10 11 15 17 17 18 18 20 23 20 24 21 16 24 27 27 25
4 3 4 1 2 1 3 4 3 3 2 6 5 2 2 2 4 2 4 2 2 3 5 3 2 6 8 9 10 12 15 15 16 16 16 17 19 21 26 27 27 28 25 25
4 3 4 4 3 3 4 3 2 5 4 2 2 3 3 3 3 2 2 4 4 4 4 3 5 8 9 10 10 12 13 13 14 13 15 17 24 24 26 29 29 30 28 27
3 6 3 5 2 4 4 6 3 4 4 2 1 1 2 2 0 1 5 3 5 3 4 6 8 10 10 11 12 13 13 14 15 20 23 24 25 25 27 30 29 27 26 24
4 4 6 6 3 7 4 4 5 5 3 1 1 3 4 1 3 3 5 4 5 7 7 7 10 12 12 13 14 14 18 18 22 24 25 25 26 27 27 21 24 25 25 24

GFSNW_925_spd_081.txt.gz
Wind_Speed
41 40 39 37 34 29 24 8 5 19 35 10 8 19 11 9 15 12 16 15 23 20 19 18 16 20 18 7 6 20 10 4 10 18 22 14 16 12 10 5 5 4 5 5
43 42 40 38 36 33 19 4 3 23 32 14 16 12 19 24 21 20 10 12 12 20 20 12 12 19 11 1 3 4 5 2 7 14 12 11 21 9 13 8 5 6 6 6
44 43 41 40 37 35 32 3 5 5 9 5 18 17 19 22 16 26 22 24 16 19 20 15 7 18 6 6 3 6 7 5 15 14 12 4 5 9 8 7 5 4 6 5
44 43 42 41 39 37 34 6 5 6 9 16 16 18 10 22 22 19 10 17 21 20 14 13 8 5 11 7 6 3 2 5 8 11 20 18 19 12 14 11 7 10 10 15
44 44 42 41 40 40 30 6 6 6 5 16 22 23 20 21 17 22 17 25 17 13 17 14 12 5 6 15 3 3 5 3 4 11 14 15 9 19 11 14 11 7 8 10
44 43 44 42 41 40 16 16 10 3 11 15 18 22 25 17 17 20 20 19 16 18 23 11 8 1 17 19 8 2 4 4 2 7 10 12 8 15 11 17 13 10 9 8
41 41 41 43 44 48 31 13 8 6 8 17 18 20 23 26 21 20 20 15 18 16 6 3 6 6 19 19 5 5 4 3 2 2 1 13 5 7 6 12 9 4 1 2
42 40 41 41 40 44 35 17 11 7 12 8 19 20 19 21 24 27 21 20 9 7 7 4 4 4 6 7 6 5 6 3 3 2 6 6 12 3 5 5 6 4 2 2
44 45 46 47 48 47 43 37 24 10 11 18 10 18 20 14 17 18 21 16 7 4 1 6 5 5 4 5 4 5 6 8 4 2 1 7 1 8 2 2 4 5 1 4
46 46 47 50 50 49 41 24 37 11 9 10 19 7 14 15 11 9 10 7 5 5 3 3 5 4 8 5 8 6 4 3 4 1 3 7 6 8 3 5 6 6 2 3
50 50 49 50 51 50 44 36 32 26 5 4 18 10 5 2 9 7 4 2 3 2 3 5 5 4 7 6 6 7 5 6 2 4 4 5 8 3 4 4 7 5 3 3
49 52 53 52 51 50 48 19 37 35 6 3 4 18 23 20 8 3 3 6 3 3 3 3 3 3 2 6 3 6 5 7 6 10 6 7 3 2 5 6 6 3 3 4
41 41 49 53 52 51 51 32 31 28 4 1 3 8 36 27 22 20 5 3 6 5 5 3 5 4 4 3 6 2 4 5 2 3 7 11 5 5 5 7 10 7 5 7
38 39 40 44 53 53 50 27 31 30 3 2 6 10 12 23 19 24 8 6 3 4 3 2 3 2 3 4 4 4 6 11 10 6 8 4 8 9 7 11 13 8 3 3
33 37 37 42 50 50 45 29 32 33 4 4 6 4 17 25 16 4 1 4 3 2 2 2 3 3 3 3 1 4 6 6 6 5 8 7 5 2 7 16 11 9 7 5
33 35 39 41 48 51 30 5 35 42 11 1 3 1 6 16 14 7 1 1 2 3 3 2 3 7 4 3 4 5 13 10 4 3 2 3 7 7 5 7 3 7 6 5
32 41 41 47 49 42 8 5 27 41 18 2 3 2 2 1 5 3 2 1 2 3 2 3 0 4 4 2 3 4 5 5 5 4 5 5 2 5 7 8 7 8 10 10
41 45 47 52 42 21 8 34 46 29 6 3 3 2 3 6 3 2 4 2 2 1 3 1 3 4 5 4 6 8 10 8 3 3 6 7 8 8 7 7 9 12 12 13
51 54 51 37 10 3 10 36 25 12 5 5 3 4 4 3 2 1 2 3 1 3 3 3 4 5 4 7 5 6 7 6 7 4 8 8 11 9 8 11 10 13 12 16
38 24 6 3 8 37 23 8 3 5 3 3 2 3 3 3 2 0 1 2 3 3 5 5 4 3 9 2 6 6 5 7 5 12 7 10 9 12 14 15 15 15 15 15
8 4 4 20 13 5 3 3 3 1 1 2 3 3 4 2 3 3 1 3 3 4 4 6 3 3 3 6 12 11 12 17 16 17 16 13 15 13 15 15 16 16 18 17
12 18 10 3 2 3 4 3 2 2 5 4 5 3 4 2 2 3 2 3 3 6 5 4 4 2 7 13 15 16 16 17 20 19 19 18 18 15 17 16 16 21 25 25
10 4 4 2 3 4 4 5 2 3 2 3 3 3 3 2 1 2 3 6 6 1 3 4 2 5 8 9 10 15 15 17 19 19 20 24 22 25 23 16 23 27 27 25
3 3 5 3 2 4 3 3 2 2 3 4 4 3 3 2 4 3 4 3 1 2 3 3 2 6 8 8 9 12 15 15 18 17 17 18 19 21 25 25 25 28 25 25
4 4 5 5 2 5 5 4 3 5 4 2 3 2 2 2 3 3 2 2 3 2 3 2 5 7 8 8 10 12 14 13 14 15 17 18 24 25 25 26 27 30 29 29
4 6 4 5 3 6 5 6 4 4 5 3 0 2 2 2 1 2 4 2 4 2 3 5 8 10 9 10 11 12 13 14 15 21 23 25 24 25 27 29 28 28 27 26
4 3 4 4 4 4 2 2 3 3 3 1 1 4 4 3 3 3 4 3 3 5 6 6 10 11 12 12 13 13 19 20 24 25 26 27 28 30 29 22 25 28 28 29

GFSNW_925_spd_084.txt.gz
Wind_Speed
33 32 30 28 25 22 20 7 7 15 32 9 6 15 10 7 11 10 7 5 14 16 10 9 8 13 9 21 20 14 11 11 13 15 6 3 4 10 10 5 5 3 5 6
36 36 34 31 28 26 13 5 4 20 26 10 14 12 16 21 19 13 5 5 6 2 4 6 14 9 12 12 13 7 7 9 3 11 7 5 5 5 6 5 5 9 6 5
40 39 37 35 33 31 30 3 5 5 8 4 17 19 18 15 11 18 17 17 16 11 12 13 10 10 8 7 19 29 8 6 21 17 2 3 3 5 14 13 7 7 7 7
41 39 37 37 36 34 34 6 5 6 9 13 16 16 11 22 18 15 10 9 20 18 7 5 16 14 6 1 11 12 7 5 6 7 10 10 12 14 9 17 9 11 9 11
43 42 40 39 37 35 31 5 4 4 1 11 18 22 16 21 13 14 15 24 17 8 13 16 17 13 4 4 10 12 9 4 2 5 10 11 6 23 19 4 4 9 7 9
43 42 42 41 40 39 15 18 10 4 10 13 14 18 19 18 18 17 20 15 13 11 18 18 16 10 4 4 3 9 6 4 3 5 4 10 6 10 14 6 6 5 6 9
44 43 42 41 42 46 32 12 7 5 9 15 18 17 20 20 25 21 12 9 13 15 18 6 3 2 4 6 10 7 7 9 2 3 4 13 8 7 13 18 14 8 5 4
42 42 41 41 42 45 38 17 11 7 11 10 15 18 15 23 21 24 22 20 15 4 4 3 4 3 3 9 8 7 14 11 2 1 3 4 10 7 6 7 8 8 7 7
37 37 37 37 37 39 44 36 22 5 7 16 12 15 16 13 15 17 21 23 13 3 3 4 7 4 3 3 9 2 4 9 5 3 3 8 4 10 4 1 5 4 7 7
39 39 39 39 40 39 39 14 28 6 3 5 14 12 11 12 10 5 4 4 7 8 5 6 6 7 4 3 3 2 1 3 5 3 3 6 9 9 4 4 6 4 6 4
45 44 43 43 44 42 40 22 32 14 2 3 10 20 10 6 11 10 3 2 2 3 5 5 4 3 6 5 5 9 3 4 3 2 3 6 4 6 6 5 4 2 4 2
47 46 46 46 45 46 44 15 30 28 3 3 9 28 31 24 12 6 6 4 4 5 3 1 3 4 1 5 4 10 5 7 5 9 7 9 4 5 4 2 4 2 3 4
53 52 49 47 46 46 49 26 30 22 4 4 8 9 33 27 22 13 4 1 4 3 4 4 3 5 4 4 6 3 4 6 4 3 6 9 9 5 5 6 5 3 3 3
47 55 51 51 49 46 48 24 30 27 4 3 6 24 24 27 24 19 11 2 6 3 1 3 3 3 3 5 4 5 7 6 6 4 7 6 4 9 8 9 6 5 1 2
35 49 48 46 50 49 44 27 29 34 8 7 4 7 11 29 25 10 3 4 4 2 1 2 3 3 2 3 0 9 4 5 4 5 9 4 8 8 8 6 5 4 6 6
30 36 39 42 52 52 32 4 25 38 35 3 4 2 8 14 20 13 7 8 3 2 3 2 2 3 3 3 3 6 6 5 6 5 4 5 4 2 4 6 4 6 7 2
32 35 37 38 52 43 9 5 12 44 28 1 3 2 3 14 9 4 4 2 3 3 3 2 3 1 2 3 7 12 10 7 5 5 5 2 3 2 3 8 10 15 15 16
30 34 34 39 49 26 6 6 25 46 11 2 1 3 3 3 3 3 3 2 2 1 3 1 3 1 3 5 7 11 15 17 8 5 1 6 8 7 8 7 11 17 14 13
37 38 42 36 11 4 7 15 36 24 6 3 1 4 3 1 2 3 2 3 1 1 2 3 4 3 6 5 3 9 10 15 5 6 8 9 11 11 10 13 14 17 14 15
45 31 5 3 6 51 30 6 3 2 2 1 2 1 4 3 1 2 3 2 2 2 5 2 3 4 6 5 8 13 11 8 8 10 6 8 9 11 13 15 13 14 14 15
4 3 3 14 24 7 2 3 2 3 1 1 2 3 5 1 4 3 0 2 1 3 4 7 4 3 1 5 4 9 9 10 12 13 15 14 13 13 15 14 14 14 18 17
11 14 9 5 3 2 4 2 1 2 4 2 4 3 3 1 3 3 2 3 3 6 3 4 4 3 6 10 10 5 7 14 16 17 20 18 18 15 16 15 15 19 25 25
5 4 4 3 3 7 5 3 1 1 1 3 3 4 3 2 2 3 2 4 6 1 3 2 2 5 6 8 8 11 12 18 16 18 20 24 21 23 22 17 24 26 26 24
4 4 5 4 4 4 3 3 2 2 3 2 4 4 3 2 2 2 4 5 2 5 5 4 3 6 5 5 10 10 13 14 16 14 19 19 18 20 25 25 26 27 25 24
4 4 5 4 3 3 3 3 2 5 4 1 3 3 2 1 2 4 4 4 2 0 2 2 3 6 8 10 11 11 12 12 13 13 16 17 24 24 26 27 29 31 30 29
4 7 4 3 3 5 4 6 3 4 4 2 2 2 3 4 1 2 4 3 2 1 2 3 4 6 9 11 12 12 12 14 13 19 23 26 25 25 28 30 29 28 29 27
5 4 4 3 2 2 3 3 4 4 3 2 2 3 3 3 3 3 3 2 2 3 4 4 8 9 10 12 13 14 16 16 21 24 27 28 29 31 31 22 26 29 29 29

GFSNW_925_spd_087.txt.gz
Wind_Speed
26 25 24 24 23 21 20 5 5 16 28 7 4 11 8 5 5 3 3 3 8 4 4 5 4 5 6 8 5 8 6 5 8 23 13 2 5 14 13 6 4 3 4 7
29 28 28 27 26 24 11 5 5 16 20 10 10 10 17 17 9 9 2 3 4 1 1 4 6 7 8 7 3 5 11 5 4 4 7 17 12 5 5 3 2 8 7 6
32 31 30 30 29 28 26 2 6 6 9 8 13 16 17 18 13 23 18 10 11 12 13 10 7 8 6 9 8 7 8 7 12 12 7 7 5 9 6 7 5 3 8 6
34 34 34 35 34 33 29 6 6 5 7 13 14 16 10 20 17 13 12 6 19 11 6 7 15 13 14 11 4 3 3 9 11 12 17 12 3 5 4 4 6 10 7 11
38 39 39 39 38 36 31 6 4 5 3 8 19 13 14 18 16 15 14 18 13 11 15 9 5 5 6 6 2 3 7 5 15 11 8 17 18 15 10 9 6 8 7 10
42 42 42 41 39 38 15 18 8 3 7 14 14 19 18 17 17 15 18 16 13 16 24 19 16 15 13 9 10 1 2 2 5 6 4 4 5 16 16 15 4 4 8 8
43 42 41 42 43 44 33 9 7 5 8 12 15 17 20 20 19 20 9 17 17 24 10 8 11 16 18 17 16 11 7 4 2 4 2 5 4 8 13 14 18 11 9 6
44 44 44 44 46 46 39 22 8 6 11 13 16 19 15 17 15 20 21 19 15 4 6 4 6 3 4 10 14 14 15 6 2 2 4 4 2 5 9 9 11 11 12 9
43 42 42 43 45 46 44 36 23 5 6 16 14 14 17 12 10 15 19 18 10 1 3 4 4 4 5 3 3 6 10 12 7 2 6 8 2 6 4 9 10 10 10 11
40 40 39 40 42 44 45 20 33 10 4 5 14 13 12 12 9 3 2 4 7 11 4 4 3 4 4 4 2 2 2 2 8 5 3 7 9 6 2 5 7 4 4 6
36 35 35 34 35 38 44 31 35 25 5 4 11 15 9 9 11 5 4 2 0 3 5 4 4 3 4 6 4 4 4 4 2 3 2 6 5 2 2 5 6 5 4 8
39 39 39 38 36 36 37 9 26 30 3 0 8 14 19 21 20 10 4 4 3 5 3 2 2 2 1 4 5 5 3 6 6 9 6 6 5 3 3 4 1 2 5 7
44 42 42 42 42 39 41 20 28 19 3 1 3 5 15 30 25 20 7 4 6 3 3 3 3 4 5 4 5 10 5 5 3 2 9 16 10 6 4 8 5 6 4 6
50 48 45 44 43 44 43 27 30 24 3 2 4 20 20 21 22 22 21 9 4 1 2 3 3 2 3 4 5 5 6 6 7 6 7 7 12 7 8 9 7 4 9 4
47 47 51 47 45 42 40 32 25 31 8 4 3 4 17 24 26 23 17 7 5 3 3 2 4 2 1 2 2 4 5 6 4 6 9 4 7 6 6 10 8 9 7 7
40 41 48 50 49 42 27 2 25 32 24 2 2 4 7 15 24 20 12 5 5 3 2 3 4 4 3 2 4 5 11 6 3 4 5 4 9 5 3 4 8 3 4 3
39 38 35 52 48 39 9 4 12 32 19 2 2 4 2 15 13 7 3 2 3 3 2 4 3 2 4 2 4 6 11 11 10 10 7 7 4 3 6 14 11 14 18 17
34 38 43 45 47 29 5 2 28 41 9 2 3 4 3 1 3 4 3 2 1 4 4 2 3 0 2 5 5 12 15 12 11 11 8 7 4 6 8 12 13 16 15 14
43 48 47 38 16 4 5 19 38 19 5 4 3 3 3 3 2 3 2 3 2 1 2 2 4 3 5 6 7 3 1 1 6 7 4 8 9 8 8 10 17 14 15 14
45 29 4 4 12 47 38 6 3 2 1 1 2 0 2 2 2 3 3 1 3 3 4 2 3 4 5 6 7 5 1 3 6 5 4 5 7 7 10 11 13 13 16 15
5 2 4 35 31 9 3 3 3 3 3 3 1 4 3 0 3 2 1 2 2 3 4 5 3 3 3 2 5 4 4 6 6 5 4 9 12 13 14 13 14 14 16 17
12 19 18 7 3 3 4 2 2 3 5 3 4 3 3 1 2 3 1 3 2 5 3 3 4 2 5 6 6 6 5 11 14 13 12 14 17 13 16 14 15 20 24 24
8 5 4 2 1 3 4 4 2 1 1 3 4 4 3 2 2 3 3 4 5 2 3 4 2 3 6 7 6 8 9 12 20 17 15 19 18 21 22 18 23 27 27 26
3 4 5 3 3 4 3 3 2 2 2 3 5 3 2 2 2 3 4 4 1 3 4 4 2 6 6 7 5 6 10 13 17 16 15 16 15 17 24 29 25 28 26 26
4 5 5 5 3 2 3 2 2 4 3 1 3 3 2 1 3 2 3 3 5 2 1 2 2 6 8 8 7 6 10 13 13 13 15 14 20 20 24 28 29 31 31 31
4 7 4 3 3 5 4 6 3 5 4 2 2 2 2 1 2 2 1 1 3 1 1 1 3 7 8 9 8 9 10 14 15 17 20 23 24 24 26 31 30 30 31 29
4 4 4 3 2 3 3 4 4 5 3 2 2 3 2 2 3 2 2 1 1 1 2 3 6 8 9 10 11 10 12 14 19 24 24 27 30 31 30 20 27 30 30 31

GFSNW_925_spd_090.txt.gz
Wind_Speed
21 22 20 19 18 16 12 4 4 7 25 6 3 10 4 4 4 4 4 3 5 5 4 4 2 4 4 13 9 7 3 3 4 9 11 5 2 8 13 9 6 2 3 10
24 24 23 22 21 18 7 3 3 12 16 7 9 9 12 11 4 5 2 3 3 4 1 2 4 5 4 7 4 4 2 2 4 6 4 2 4 5 5 3 3 14 7 6
25 25 25 25 23 22 20 1 4 4 6 6 10 13 14 13 7 16 13 5 4 4 4 4 5 4 6 11 14 5 4 6 7 5 12 14 12 7 12 10 6 8 14 4
28 28 27 27 26 26 22 6 5 4 6 10 15 9 7 17 11 11 7 6 18 15 7 4 6 5 6 9 13 6 5 5 8 12 16 16 27 23 15 17 12 10 6 12
32 31 31 30 29 28 24 5 4 4 9 4 17 19 17 19 15 13 8 11 4 10 12 12 5 3 2 5 3 3 3 4 4 12 14 18 22 21 14 9 5 3 5 6
37 36 35 34 33 32 16 20 9 4 8 16 12 17 20 20 20 9 19 13 11 14 21 15 14 11 13 12 15 14 4 4 2 5 5 15 8 22 20 10 6 8 7 8
40 40 39 38 38 39 31 7 5 6 11 10 17 15 18 19 17 19 11 16 15 12 7 5 7 12 16 18 18 13 8 4 2 3 4 5 7 6 16 14 10 9 6 6
43 42 42 41 41 43 39 29 8 5 10 12 18 21 20 17 17 19 18 17 15 1 4 2 3 3 3 9 14 18 16 10 3 2 3 7 12 7 3 7 15 11 13 9
46 45 43 42 42 43 42 38 27 6 3 17 15 8 15 9 9 12 13 16 6 3 1 2 4 4 3 4 5 14 14 15 6 2 3 5 6 7 15 2 6 6 8 9
43 45 47 46 45 46 44 18 39 11 4 5 12 11 12 12 9 3 4 5 6 12 5 5 4 4 3 3 3 0 7 8 16 11 5 7 9 4 13 4 5 2 3 7
35 37 40 40 41 43 43 33 29 28 2 5 8 13 10 10 12 9 4 3 2 5 5 3 4 4 5 4 7 4 4 2 5 6 5 5 7 3 2 4 7 4 6 6
35 35 34 35 37 39 41 19 33 35 7 1 16 16 31 26 24 14 8 5 3 3 3 3 2 3 0 6 3 4 3 5 3 6 5 7 3 5 6 6 4 6 6 6
36 36 36 35 34 35 38 23 28 28 3 1 3 8 23 26 29 30 8 3 6 7 4 0 3 4 4 3 5 6 5 3 4 1 7 14 8 5 5 7 8 2 6 4
42 40 39 38 37 35 36 17 24 16 3 2 3 14 7 25 30 24 17 5 4 3 3 3 3 2 3 4 5 5 6 1 1 6 14 13 6 1 5 6 6 3 6 4
43 44 43 41 39 37 35 27 27 24 4 2 2 2 17 28 26 21 24 14 7 3 2 3 3 2 2 3 0 4 4 7 3 5 8 5 8 6 5 4 6 9 9 5
39 43 46 44 42 37 26 3 21 32 25 2 2 3 3 16 22 21 13 13 8 3 4 3 3 5 3 3 3 6 10 11 7 11 3 6 14 6 4 4 6 12 15 16
41 41 46 46 44 40 8 4 14 35 16 2 1 3 4 11 7 7 5 8 6 5 1 2 3 3 6 3 8 6 8 7 6 7 4 8 6 3 7 11 10 9 19 15
41 39 46 46 45 28 8 4 32 39 7 2 2 4 2 6 4 6 4 4 5 4 3 3 3 2 2 4 5 10 15 15 10 9 6 11 2 6 8 10 10 12 15 12
35 41 43 40 15 4 7 25 35 15 4 5 4 3 1 1 3 2 2 3 3 2 4 4 3 3 6 7 10 10 12 7 6 3 6 2 5 6 8 6 4 12 9 17
49 39 6 4 11 40 39 5 2 2 1 1 2 2 3 2 1 3 3 3 3 4 4 3 4 4 5 7 10 7 6 4 1 2 5 5 5 5 9 10 9 12 13 15
5 2 5 40 41 7 2 3 4 3 3 4 3 5 4 4 3 3 1 2 3 3 3 5 3 4 5 3 4 5 5 2 1 2 3 0 9 11 14 13 15 13 15 15
13 21 21 7 3 3 4 2 3 4 5 4 4 3 2 2 3 2 3 2 3 4 4 3 4 2 4 5 6 7 6 5 6 7 8 11 14 13 15 15 16 19 25 24
9 5 4 2 2 4 5 5 2 2 2 3 3 3 3 3 2 2 2 3 3 3 3 4 2 3 3 4 4 7 7 8 10 13 12 15 16 21 20 17 24 29 27 26
4 4 5 4 4 4 3 3 2 2 2 4 3 3 2 1 2 2 3 3 2 3 3 3 2 3 3 4 4 7 8 9 10 13 14 14 17 16 24 24 25 32 27 26
4 4 4 4 2 2 3 2 1 3 2 1 2 2 2 2 3 1 3 2 3 2 3 2 3 3 3 4 6 8 9 8 9 11 13 15 20 20 23 26 27 28 33 30
4 6 3 4 2 5 4 5 4 4 4 2 1 3 3 2 2 2 1 1 3 2 2 2 2 5 6 6 8 9 10 11 10 11 16 23 24 22 27 31 31 28 28 29
4 3 3 3 2 2 3 3 3 3 2 2 2 3 0 1 3 2 3 2 2 1 2 3 5 5 7 8 9 10 12 12 16 18 23 25 30 32 31 20 27 30 31 32

GFSNW_925_spd_093.txt.gz
Wind_Speed
25 21 16 14 13 12 9 6 3 3 23 5 3 7 5 4 8 6 4 2 3 4 4 6 6 8 5 9 6 5 3 1 4 5 11 8 3 2 14 10 8 2 5 11
23 19 17 16 18 16 9 2 3 6 12 6 8 5 10 8 5 4 4 3 5 1 4 4 5 4 4 1 7 4 9 1 3 4 2 5 3 5 10 7 4 17 9 4
22 20 18 17 19 17 17 2 3 4 6 5 8 12 12 12 6 16 12 5 5 3 3 4 3 5 5 8 12 13 4 5 7 6 2 2 7 14 15 8 9 10 18 15
25 24 20 19 21 21 20 4 4 4 4 10 11 8 6 15 11 10 6 5 15 12 7 9 9 11 10 9 12 4 7 6 10 13 13 18 15 17 21 20 19 13 10 16
26 21 21 23 25 23 18 3 4 2 2 6 15 15 15 19 11 9 7 15 11 10 12 14 3 1 3 5 5 6 6 2 5 10 14 17 17 22 22 24 21 22 21 20
25 25 26 27 28 27 9 13 5 2 8 9 8 11 13 14 13 12 18 16 8 8 14 11 15 14 14 13 9 6 3 2 4 4 8 11 12 11 15 15 19 18 16 14
30 30 29 30 31 33 21 10 9 5 9 10 14 16 17 18 17 18 11 12 12 5 3 6 13 15 17 16 18 14 7 6 2 5 6 8 4 6 9 13 20 19 17 8
36 35 34 34 35 35 31 25 11 6 11 11 15 17 17 16 17 19 16 14 10 6 7 4 3 2 3 10 19 19 18 9 4 4 6 11 12 2 3 6 23 16 18 15
40 39 38 38 38 38 37 33 30 9 3 14 20 15 14 12 9 11 11 12 11 7 3 3 3 3 3 3 4 5 12 14 7 4 5 6 1 4 3 5 12 14 8 10
42 42 42 43 43 42 41 24 39 18 13 15 7 9 10 10 8 4 4 5 7 11 4 4 5 6 2 3 3 3 5 6 13 11 8 7 8 1 2 3 5 18 11 14
39 40 42 44 47 44 43 34 31 32 7 6 12 17 14 9 10 8 2 4 5 3 5 5 4 5 6 5 8 4 4 6 5 8 6 10 2 2 3 5 13 14 12 10
33 36 37 36 41 46 44 21 33 36 8 2 20 20 26 24 20 12 9 5 4 2 3 3 2 4 2 7 5 4 5 7 3 6 5 9 13 8 10 10 8 13 5 4
34 33 32 32 33 38 43 25 23 28 8 1 4 8 24 28 29 30 8 7 8 7 5 2 2 4 2 5 7 5 5 4 5 2 2 10 15 17 10 11 13 7 5 6
34 33 33 33 32 31 36 29 28 25 2 4 3 14 9 31 33 24 20 8 10 9 4 3 3 2 3 3 5 6 7 2 2 6 9 7 5 7 12 17 10 5 5 4
37 34 33 32 31 31 31 21 30 30 6 3 3 1 16 17 23 21 17 12 9 5 4 3 5 3 3 3 2 4 4 11 5 7 9 8 12 9 13 11 8 7 4 7
34 38 40 34 33 29 22 3 26 31 10 2 2 2 3 13 19 15 11 10 5 5 3 2 3 4 3 3 3 6 10 13 13 15 13 7 9 10 3 1 3 2 12 13
34 34 38 41 37 34 7 2 14 35 15 2 2 2 3 6 5 5 4 5 5 4 2 3 4 4 5 3 8 10 11 10 9 12 6 9 5 7 3 5 8 7 11 16
33 35 38 38 38 27 10 1 33 34 9 2 2 2 1 6 3 3 4 4 5 4 3 3 3 2 3 5 4 12 17 18 15 16 9 12 8 2 5 7 7 4 11 11
36 37 38 36 16 3 12 14 33 11 4 4 3 4 4 1 3 3 3 4 5 2 5 4 5 4 8 6 9 14 13 8 7 3 4 5 8 7 6 6 9 7 10 12
43 31 5 4 10 42 32 8 2 2 2 2 3 2 3 3 2 3 3 4 4 5 8 5 4 8 13 8 12 11 6 5 3 4 5 2 4 6 6 7 10 9 9 14
10 3 4 37 42 10 3 3 3 3 3 3 4 5 4 2 4 3 3 2 4 4 4 7 5 5 3 2 3 6 6 5 4 2 4 6 5 9 11 12 13 11 14 16
16 24 21 9 3 3 4 3 4 4 5 5 5 4 3 3 1 2 2 3 1 3 5 3 3 1 4 4 4 5 4 5 6 5 5 7 10 10 13 14 15 15 20 25
10 6 5 2 3 5 5 7 3 3 3 4 3 3 4 2 2 2 3 4 3 3 3 3 1 2 5 6 4 5 5 5 7 8 10 14 15 18 19 16 22 21 23 24
5 4 6 4 4 3 2 2 2 2 2 3 3 3 2 2 3 2 3 2 3 3 3 1 3 7 5 5 5 4 5 6 7 9 11 14 15 15 22 23 24 26 26 26
5 5 5 4 2 2 3 2 1 3 3 1 3 2 2 1 3 1 2 2 2 1 0 3 5 6 5 4 5 6 6 6 8 8 11 12 17 18 22 23 26 29 30 31
4 7 3 4 2 4 4 4 3 4 4 2 1 2 2 2 1 2 2 1 1 2 2 4 4 4 4 4 6 8 8 9 9 11 16 18 19 20 25 29 30 30 32 31
4 4 3 3 2 1 2 3 4 4 3 2 2 4 2 1 3 3 3 2 2 2 2 2 3 4 5 7 9 9 11 12 15 18 20 22 25 28 26 19 26 30 31 31

GFSNW_925_spd_096.txt.gz
Wind_Speed
23 24 23 21 19 16 16 6 4 7 19 7 5 10 4 1 8 6 7 7 8 10 11 14 15 14 10 8 13 10 5 4 6 10 10 9 9 8 18 13 17 10 13 13
19 24 23 21 24 17 9 3 5 6 17 7 10 8 9 10 7 8 7 11 9 9 13 12 14 13 8 4 4 2 7 4 5 5 5 2 4 2 1 6 8 19 14 3
22 23 20 23 19 21 15 3 5 5 5 6 11 14 14 14 7 12 14 10 7 11 13 12 9 8 6 3 9 7 6 7 9 10 7 6 6 5 9 4 5 12 16 17
20 20 21 21 21 24 18 4 6 8 6 12 12 11 7 15 14 11 7 7 17 15 14 15 17 18 16 16 11 9 6 12 12 14 19 18 17 18 17 16 14 14 15 19
21 21 20 24 23 22 16 4 5 5 10 10 15 17 18 18 11 11 10 14 11 11 16 16 10 8 9 8 4 3 1 7 6 14 16 18 20 21 21 21 19 21 22 27
22 23 24 21 24 24 6 10 11 4 9 15 12 13 13 13 15 16 16 15 13 14 15 9 10 15 15 15 13 7 4 4 6 11 5 12 15 22 22 22 20 17 19 20
21 21 23 22 24 27 19 7 10 5 10 12 16 19 17 16 16 16 12 11 13 12 3 7 12 15 17 18 18 16 9 8 4 6 9 9 7 3 14 18 15 10 14 18
27 27 26 26 28 29 25 22 7 7 10 14 18 18 17 17 18 19 19 17 12 4 4 3 6 5 7 13 23 20 19 14 4 4 9 16 18 8 10 12 10 5 11 11
32 31 31 32 31 31 31 27 25 6 4 15 22 19 21 15 13 14 17 15 10 7 2 4 5 4 3 4 5 7 17 16 10 8 7 5 4 12 5 8 13 8 10 13
33 33 34 34 34 33 33 20 33 16 7 14 5 6 15 16 15 7 5 9 8 11 4 6 6 5 4 5 4 5 5 7 16 13 11 8 15 13 11 8 6 16 17 17
35 36 37 38 39 37 37 32 28 28 7 14 17 17 17 6 8 9 3 2 8 5 5 4 4 5 7 10 11 5 7 6 5 6 7 13 6 5 6 11 18 18 16 18
34 34 35 37 40 42 42 24 33 33 9 4 22 34 29 25 25 10 8 8 1 5 4 5 3 4 3 9 9 10 11 10 4 7 5 11 10 4 14 17 18 18 8 21
27 29 32 35 37 42 46 33 23 30 8 3 13 14 24 33 32 30 10 8 13 7 5 1 2 5 3 5 9 14 10 7 6 5 7 13 1 13 17 14 16 14 15 17
31 31 31 28 28 36 36 35 27 32 2 6 6 18 29 29 31 31 31 22 13 14 6 3 4 4 3 5 7 11 9 4 7 9 11 11 11 10 13 16 13 10 12 12
34 32 30 29 28 25 29 31 29 36 9 2 7 7 18 23 26 27 30 22 14 7 4 3 4 5 6 8 8 10 11 13 10 11 12 12 12 14 15 17 14 12 9 1
33 32 30 30 31 27 20 2 24 36 27 1 3 3 5 14 20 18 18 14 12 9 2 3 3 5 6 4 8 12 11 13 14 14 15 13 13 12 16 10 9 7 8 7
32 31 35 31 31 31 6 3 14 34 21 3 2 3 2 8 11 7 8 13 5 4 2 4 4 9 5 7 14 17 16 15 17 19 18 16 17 12 7 4 4 8 11 10
29 34 34 34 31 18 7 1 35 35 8 3 3 3 2 6 4 5 5 6 7 5 3 3 3 3 3 5 10 14 16 19 21 21 16 15 14 12 6 3 7 7 8 10
27 32 30 33 11 4 6 23 35 15 4 4 4 5 5 5 5 4 5 5 5 4 5 6 5 6 8 9 13 15 15 13 17 16 7 8 10 8 3 3 5 8 9 10
30 24 6 4 12 37 33 7 2 2 2 1 4 3 4 6 5 4 4 4 5 4 6 3 4 12 17 16 15 16 10 12 11 13 13 10 5 3 5 6 6 8 11 12
7 3 3 27 39 10 2 3 4 4 4 5 5 9 5 5 5 4 4 2 5 4 5 6 5 9 14 16 13 6 4 6 5 7 6 7 6 5 7 9 10 10 13 13
10 19 23 10 4 3 4 4 4 4 5 5 5 7 4 4 1 3 4 3 2 4 8 4 4 3 7 5 4 6 6 6 5 5 5 3 2 7 10 11 12 15 18 22
26 6 4 3 1 4 6 8 4 4 5 5 4 4 4 2 3 2 4 5 6 4 4 3 3 5 7 7 6 5 6 4 3 3 4 5 7 10 14 14 21 23 20 23
4 3 6 3 3 3 2 2 3 3 0 5 7 3 3 3 5 2 4 2 2 4 4 1 2 7 9 7 6 4 5 5 5 6 7 9 10 12 17 19 23 25 24 23
5 4 5 4 3 3 3 2 2 3 3 1 4 2 2 3 3 3 2 3 3 1 2 2 5 8 8 7 5 4 4 5 7 8 8 9 14 16 18 18 22 26 28 27
4 6 3 3 3 4 3 4 3 4 4 2 1 3 3 2 0 3 1 3 1 3 3 5 7 7 6 5 5 6 6 8 9 12 14 16 16 18 22 26 25 26 29 29
4 4 5 4 4 4 3 4 5 5 3 0 1 2 2 1 3 2 3 3 3 5 5 4 6 7 6 5 6 7 9 10 13 17 20 22 24 26 26 17 23 26 28 31

GFSNW_925_spd_099.txt.gz
Wind_Speed
20 21 21 22 20 15 15 6 5 9 17 9 7 14 14 5 9 8 12 8 14 13 13 14 13 17 14 7 13 13 9 6 11 14 12 7 12 17 22 11 16 12 14 14
21 18 18 18 17 16 11 3 8 6 16 8 11 14 14 11 10 11 10 12 12 14 14 13 16 19 20 16 10 6 7 8 10 14 16 16 10 13 12 13 15 20 13 9
20 22 19 19 18 19 21 3 5 4 7 11 14 14 15 15 10 12 14 11 10 14 15 17 14 16 8 6 11 9 5 10 13 13 8 7 6 10 8 10 10 13 16 19
21 22 22 22 21 18 17 5 7 5 6 12 15 17 9 16 15 11 8 12 15 15 15 18 19 18 17 16 14 16 12 15 16 17 23 17 15 17 15 16 16 15 15 16
21 20 21 19 19 16 19 3 4 6 11 12 17 18 19 17 12 10 16 16 12 11 16 17 16 17 14 16 13 18 16 15 16 19 19 20 22 23 22 22 20 20 19 21
23 22 23 21 19 19 5 7 14 5 8 16 13 13 18 20 15 12 15 13 10 11 12 9 10 14 12 12 13 11 3 8 11 14 16 20 20 23 24 25 23 20 20 19
18 20 19 22 23 20 9 11 10 5 13 12 13 16 14 16 17 12 9 11 11 9 6 8 9 16 18 17 18 16 9 11 5 7 9 12 14 14 12 14 17 20 22 22
24 24 22 21 25 24 24 14 11 4 8 12 15 15 15 15 14 15 15 14 9 5 5 3 9 8 13 21 22 21 18 14 6 7 9 15 17 12 13 10 11 8 8 7
28 28 27 26 26 25 24 24 20 9 6 12 17 14 15 12 12 13 14 13 3 2 2 4 6 6 4 4 5 24 20 17 11 6 9 10 8 10 12 15 10 14 14 11
30 30 31 30 29 29 28 18 26 11 7 14 13 8 12 12 12 9 6 2 6 9 4 5 8 8 6 4 5 7 15 12 15 13 9 8 14 16 12 9 4 16 17 15
34 33 32 33 32 32 32 27 22 22 6 13 16 18 13 6 5 10 2 2 7 5 5 4 6 4 5 7 11 3 7 9 7 10 5 9 4 8 5 8 12 15 19 18
34 34 34 34 34 34 34 25 26 25 9 5 11 31 31 25 15 10 7 9 10 1 4 4 3 5 3 5 4 9 5 8 4 7 4 2 9 5 4 8 13 19 18 22
32 34 35 35 35 36 38 28 23 21 9 9 16 19 24 20 32 28 12 12 15 9 6 3 2 4 5 3 6 10 9 7 4 6 6 6 9 4 3 7 17 20 19 19
30 30 32 35 35 36 38 35 29 26 2 5 10 18 27 42 27 25 29 26 24 15 8 2 3 4 5 6 6 8 6 6 8 9 8 10 4 4 6 15 16 17 11 18
30 30 28 28 32 36 36 35 29 38 13 3 6 15 26 20 29 34 29 25 17 10 4 3 3 6 8 9 11 11 11 11 9 7 9 8 11 11 10 13 15 10 10 8
37 34 29 29 27 27 23 6 25 39 35 3 5 3 5 19 22 24 18 13 13 8 2 3 4 12 7 5 8 13 11 9 10 10 13 11 13 12 14 15 10 8 6 5
36 33 32 31 28 27 4 2 8 42 30 3 3 4 4 11 14 8 8 18 8 5 2 4 9 11 5 5 13 17 18 18 17 17 16 18 15 11 10 10 5 5 8 10
31 31 31 29 30 22 12 6 18 39 9 3 3 3 5 12 5 5 5 4 5 4 2 3 4 6 6 6 11 14 15 15 15 15 13 13 11 7 10 3 4 3 6 8
32 30 29 20 8 4 10 11 38 17 5 4 3 5 4 7 7 4 4 5 4 4 5 6 6 8 7 7 12 15 16 15 15 12 13 14 12 9 8 1 4 4 6 8
28 29 6 4 9 30 34 6 2 2 3 3 4 5 4 5 4 4 4 3 4 4 6 4 6 11 19 21 18 16 14 17 11 14 14 13 13 4 3 2 0 3 7 10
7 3 2 17 39 9 2 4 4 4 4 4 6 10 6 4 5 4 4 1 2 3 5 6 4 6 5 9 14 9 11 7 7 9 11 13 10 10 4 3 6 9 10 11
12 18 23 8 4 2 5 5 5 5 6 6 5 8 5 4 3 3 3 3 3 5 1 3 3 4 9 10 11 9 9 9 8 8 9 10 8 9 1 7 9 12 17 19
36 6 3 4 2 6 6 8 4 5 4 4 5 5 3 3 3 2 3 5 5 3 3 3 4 5 7 8 8 9 8 9 8 7 7 7 8 10 7 11 15 18 20 20
3 3 5 0 4 1 3 3 4 4 4 7 6 5 4 3 4 3 4 3 3 4 4 1 5 8 8 8 8 8 8 8 7 6 6 8 8 10 15 14 15 18 19 23
4 3 4 3 3 5 3 3 3 4 2 4 5 3 3 3 3 4 3 4 5 1 3 3 6 7 8 8 8 7 6 4 4 5 6 8 12 13 15 16 18 21 23 23
4 7 4 1 6 6 5 5 5 4 2 1 1 3 4 4 3 6 3 4 2 4 3 5 7 8 7 7 7 6 5 4 5 9 11 13 15 16 20 23 23 24 26 25
4 4 5 5 6 6 4 4 4 5 2 2 2 3 3 3 3 2 4 4 4 5 5 5 7 7 6 4 4 3 4 6 10 12 13 15 19 22 22 15 22 26 28 29

GFSNW_925_spd_102.txt.gz
Wind_Speed
18 17 16 16 16 12 8 2 5 10 19 7 5 14 24 23 23 13 8 11 14 16 15 13 15 14 12 5 6 11 12 8 13 20 11 21 7 13 18 11 15 10 13 15
18 18 17 15 12 12 5 3 4 11 12 6 11 14 22 23 21 11 12 13 12 14 15 15 15 16 15 17 16 8 5 7 11 18 18 17 14 14 11 17 14 19 12 8
19 18 17 17 13 13 9 3 4 6 3 10 16 13 19 19 15 12 14 14 13 13 15 14 15 17 14 14 8 10 1 12 15 12 8 6 10 18 19 14 5 12 15 18
19 19 17 18 16 14 13 2 6 9 5 11 15 18 12 11 15 12 12 14 18 16 14 15 16 17 19 16 12 11 9 16 18 23 26 18 18 15 18 20 16 9 13 15
18 19 19 20 20 14 7 2 4 8 12 7 7 15 17 20 17 13 16 14 15 13 15 16 16 18 14 11 11 13 14 16 19 23 23 24 22 22 18 22 22 19 17 17
19 19 19 19 17 16 5 8 13 4 6 10 10 12 12 17 17 14 17 10 10 12 10 10 10 11 11 11 11 10 9 12 16 18 20 23 22 20 20 21 21 18 17 15
21 20 19 19 16 21 10 8 13 5 8 11 11 13 14 13 14 14 14 11 11 5 4 7 11 14 17 17 18 15 11 9 7 7 12 14 17 16 19 19 18 18 18 18
20 19 19 17 16 20 18 12 6 3 7 11 14 16 15 12 12 7 11 15 7 6 5 4 8 9 14 22 22 22 18 14 4 5 8 14 14 8 7 6 2 16 15 17
22 23 22 22 20 18 24 17 16 3 4 9 14 13 13 9 12 12 11 9 10 7 3 2 4 7 4 4 5 23 19 15 10 6 10 12 10 7 8 7 7 12 11 12
24 24 24 24 23 21 24 13 19 8 5 11 14 10 6 9 7 7 3 9 4 4 2 3 7 11 9 6 4 5 16 12 14 12 7 7 13 9 6 6 3 13 12 11
26 27 27 25 24 24 24 21 19 16 4 12 15 16 9 11 10 6 4 4 4 1 5 4 5 5 4 7 12 6 11 10 8 8 7 11 5 10 5 4 6 7 11 13
32 31 30 29 26 26 26 20 21 17 5 6 13 15 22 23 17 9 4 3 5 2 2 2 3 3 4 6 4 6 3 7 3 6 4 3 8 5 4 2 6 8 10 15
32 30 29 29 29 28 30 25 20 15 4 8 13 15 24 21 18 20 11 10 10 5 6 3 2 6 2 2 4 5 6 3 4 9 15 4 8 6 4 5 7 10 12 13
30 30 28 30 30 29 32 28 22 17 1 4 9 16 18 22 26 24 21 18 18 12 6 2 3 3 4 3 5 5 8 8 6 5 11 9 7 11 9 4 6 12 12 9
30 29 29 29 30 30 31 27 25 26 8 3 4 17 22 21 15 21 24 17 11 7 4 2 2 3 5 5 8 8 9 9 6 5 5 4 9 10 8 5 9 8 7 8
32 30 28 28 28 29 22 5 26 30 27 4 4 5 9 5 18 20 14 11 10 6 2 2 4 11 5 3 5 9 11 14 13 7 11 10 10 13 12 10 11 9 11 12
35 35 29 27 27 31 10 4 2 34 28 2 3 5 5 21 12 9 7 11 6 3 2 3 6 9 5 3 6 15 16 15 16 14 13 12 13 12 9 8 14 15 15 13
33 35 31 26 25 23 12 10 5 31 11 3 3 4 3 5 3 3 6 4 5 4 3 2 3 5 4 4 9 12 14 13 15 9 10 8 7 12 8 7 8 10 11 9
29 35 30 19 10 4 7 16 18 22 5 3 3 4 3 6 7 4 4 3 3 5 4 4 4 5 5 7 12 12 12 12 14 14 10 11 13 17 11 6 6 12 10 10
33 28 6 4 8 23 23 7 5 2 2 2 4 4 5 6 3 4 3 3 3 3 6 4 4 7 16 16 15 15 14 13 13 11 10 11 12 14 9 9 7 10 11 12
6 3 2 12 32 8 2 3 4 4 3 4 4 9 5 4 3 3 2 1 2 3 4 6 4 2 8 13 14 13 13 13 11 10 10 10 10 11 11 7 11 12 12 10
11 16 20 7 4 2 5 5 4 6 5 7 6 8 5 2 1 2 1 3 1 5 2 3 2 4 9 10 11 11 11 13 11 11 11 10 10 11 10 12 13 15 17 18
30 6 3 4 2 5 6 8 4 4 3 3 3 4 2 3 1 2 2 4 5 3 2 1 4 6 8 10 10 11 10 12 12 11 12 12 12 16 14 12 17 19 18 18
2 3 6 2 5 4 1 2 5 3 4 5 4 4 3 3 4 3 3 3 3 3 4 3 4 8 9 9 9 9 10 10 9 9 9 10 10 11 14 16 18 20 19 19
4 3 4 3 3 4 2 2 3 3 2 5 3 2 3 2 2 3 3 3 5 1 4 2 5 8 8 8 9 9 8 7 8 8 7 9 11 11 14 16 18 22 23 24
3 6 3 4 6 5 5 5 5 5 3 1 2 3 3 4 3 5 5 4 4 3 3 4 6 7 7 6 7 7 7 7 8 10 11 12 12 14 16 19 20 21 23 24
4 4 6 4 7 7 4 4 4 4 2 2 3 5 4 3 4 3 4 3 4 4 5 5 7 7 7 6 5 5 7 7 8 9 11 13 14 16 17 13 18 22 24 26

GFSNW_925_spd_105.txt.gz
Wind_Speed
15 15 14 13 11 10 5 3 3 3 3 6 3 9 6 8 19 22 18 19 1 8 12 10 9 9 7 11 7 4 2 1 4 7 18 1 4 3 8 7 8 5 7 10
15 16 15 13 10 6 2 2 4 12 8 3 8 6 16 18 20 22 18 12 4 6 7 5 6 11 13 9 8 3 3 3 4 7 7 4 4 6 12 16 9 16 7 7
16 16 15 12 11 9 4 2 3 2 2 2 8 8 11 15 15 21 20 16 6 6 6 7 7 12 10 11 6 5 5 1 4 6 12 14 12 17 5 4 3 6 9 20
17 17 15 13 13 11 7 2 3 4 3 4 9 9 7 14 8 11 10 6 7 7 9 9 8 9 10 11 13 4 4 5 8 15 18 19 19 22 18 14 5 5 8 12
17 16 14 15 15 12 10 2 2 3 5 14 7 7 5 15 15 5 7 9 12 9 9 10 4 7 5 2 8 6 3 5 6 14 16 21 21 23 20 17 15 9 14 16
15 16 15 14 15 13 5 8 12 3 4 8 8 4 7 9 13 9 7 10 9 9 6 4 3 4 6 6 3 2 1 2 3 17 14 19 18 12 15 18 15 10 13 16
17 18 19 17 17 16 15 6 4 4 5 6 7 11 7 8 15 12 6 6 3 1 3 6 4 8 11 11 11 9 5 3 2 7 5 13 13 13 17 16 16 10 9 10
18 18 18 14 14 13 19 12 6 2 3 4 7 9 10 11 7 12 4 8 5 5 2 2 5 4 5 11 18 15 13 6 2 5 5 10 14 4 8 4 6 11 8 11
18 17 17 16 15 14 18 19 15 3 3 4 4 3 6 7 4 5 6 7 5 1 3 2 0 3 3 5 8 11 15 10 7 3 4 5 3 8 12 6 2 8 9 11
18 19 18 18 15 15 17 10 19 6 2 5 4 1 2 3 3 4 4 6 5 2 2 1 3 4 5 4 3 2 11 9 13 7 4 7 9 6 5 2 2 3 4 5
19 19 19 19 17 16 18 17 19 9 3 5 8 6 6 3 1 1 4 5 4 1 3 3 4 2 3 5 9 5 8 8 5 4 2 8 7 4 1 3 3 3 2 4
24 23 22 22 22 19 17 12 17 17 6 4 14 13 15 12 11 4 0 2 2 2 3 2 2 2 2 4 3 4 2 1 3 7 6 2 3 2 1 4 1 2 4 7
25 25 24 23 23 22 20 19 14 11 2 5 8 9 21 24 25 13 3 2 3 3 3 2 3 3 2 3 3 7 6 2 2 4 5 6 7 9 3 2 2 4 6 3
27 26 26 25 23 23 22 21 22 16 1 3 3 6 9 13 15 22 17 13 10 3 2 2 3 3 2 3 5 4 4 1 4 4 0 1 6 4 6 7 8 5 6 8
29 28 26 25 23 23 22 24 22 22 5 2 4 10 14 11 15 18 21 16 4 2 2 2 3 3 3 3 3 3 3 3 4 2 5 4 12 13 10 10 3 6 9 9
32 29 25 24 23 22 17 3 21 26 21 2 3 4 4 14 12 15 9 7 4 3 2 2 3 4 3 2 3 3 5 7 8 3 5 13 8 6 8 11 12 12 12 10
31 28 28 24 24 27 9 3 1 25 23 2 3 3 4 18 13 1 2 6 3 3 2 4 2 3 2 2 4 11 14 14 14 12 10 5 4 4 6 12 14 16 16 15
27 30 28 25 24 23 18 10 3 25 8 3 3 4 3 5 3 3 3 3 2 3 2 2 3 2 3 4 10 10 12 10 8 8 8 5 8 12 9 12 12 12 11 10
22 31 29 19 13 4 8 25 3 15 4 4 3 2 2 2 2 1 1 3 2 4 4 3 4 3 4 7 6 7 11 9 8 9 9 9 9 9 10 12 10 11 10 10
35 30 5 3 10 21 24 9 5 2 2 2 3 3 3 3 2 1 1 2 2 2 5 3 3 2 10 12 12 11 14 14 15 12 12 10 11 9 10 8 7 9 9 10
10 3 2 11 35 7 2 3 3 3 3 4 4 6 3 2 3 2 2 2 0 1 3 5 3 2 6 11 11 10 12 14 13 12 11 11 10 8 6 8 10 9 12 11
12 16 19 9 4 2 4 5 4 4 5 4 3 4 5 1 3 2 2 2 0 4 1 2 1 3 9 11 12 12 11 12 12 13 11 11 12 10 9 9 10 13 17 18
26 5 2 4 2 5 5 6 3 3 3 3 2 3 3 2 2 2 1 2 4 0 1 2 3 5 8 10 10 11 11 13 11 11 12 11 11 13 10 10 12 15 18 19
3 4 6 3 5 4 3 1 3 1 3 3 4 2 3 2 2 2 3 4 1 2 1 2 3 6 6 7 7 8 10 9 8 10 10 10 10 11 13 13 13 14 16 17
2 2 3 2 1 3 1 1 2 4 2 3 3 3 3 1 3 3 2 3 4 2 2 2 3 4 4 6 7 6 6 6 7 8 6 8 10 11 13 14 16 19 19 20
3 6 2 2 4 3 3 4 3 4 3 2 3 3 3 2 3 3 4 2 3 2 2 2 2 5 5 4 4 4 5 8 7 9 10 12 12 11 13 18 18 19 21 20
4 3 4 2 5 5 3 3 3 3 2 2 2 4 4 1 2 3 3 3 1 2 2 1 2 3 4 4 4 7 7 8 9 10 11 11 13 14 15 13 17 21 23 24

GFSNW_925_spd_108.txt.gz
Wind_Speed
10 9 10 11 11 8 4 1 2 2 9 2 2 7 6 6 11 13 12 10 15 20 6 5 1 4 4 8 8 4 3 3 2 6 7 2 1 2 4 2 6 4 5 11
9 9 11 12 11 7 1 1 2 12 6 2 4 4 10 12 13 12 8 12 10 18 4 4 3 1 5 7 7 6 5 3 3 6 3 7 7 2 6 4 1 3 4 6
9 11 11 11 9 6 4 1 2 4 1 2 3 6 8 6 7 5 9 13 14 18 7 3 5 6 1 7 5 4 2 2 4 5 2 3 7 12 9 2 2 4 7 12
12 13 13 14 11 7 6 2 3 3 3 3 3 6 6 13 9 10 6 7 12 9 5 2 5 5 8 6 8 2 3 6 5 6 6 6 11 15 14 13 12 7 9 15
11 12 13 10 13 7 6 3 1 2 3 5 6 8 6 12 18 4 5 3 15 8 3 3 4 3 2 1 5 4 4 3 3 5 5 10 16 16 14 18 17 16 17 18
15 14 13 12 9 11 5 6 5 0 5 3 3 3 10 8 7 6 9 7 5 9 5 2 3 3 4 5 1 2 2 2 3 9 6 9 12 15 14 17 16 11 15 10
16 14 14 14 11 13 13 6 2 3 4 5 5 7 12 8 6 4 9 8 6 4 0 2 3 5 8 9 10 9 4 3 2 3 2 10 7 6 13 17 15 9 3 4
16 15 16 16 13 14 20 10 5 2 4 4 7 10 3 5 6 4 3 5 4 2 2 3 4 4 4 7 13 12 13 7 1 2 4 12 17 9 3 5 6 7 4 3
16 15 15 14 13 13 15 16 14 3 2 3 4 9 3 1 3 5 4 5 7 3 2 3 2 3 2 5 4 5 11 12 6 2 3 5 4 5 4 11 3 2 2 2
14 14 16 14 13 12 17 9 18 6 2 4 1 3 3 4 2 1 2 6 7 2 2 1 2 3 4 4 3 1 3 7 14 8 3 7 10 9 12 3 2 3 3 3
15 13 15 15 14 13 14 13 17 12 3 6 5 3 3 3 2 1 3 4 2 3 1 2 3 3 3 3 5 5 4 6 5 5 4 9 4 7 2 3 2 2 1 3
19 17 17 16 15 12 11 11 17 17 5 4 17 20 19 13 10 4 3 1 2 2 2 2 3 2 2 4 3 2 5 2 2 6 5 3 4 3 3 4 2 2 2 4
19 20 19 18 17 16 16 15 12 10 2 6 7 9 25 21 27 22 3 3 4 3 3 1 2 4 3 2 3 5 3 4 2 1 4 6 6 5 1 5 4 3 3 3
24 22 22 21 19 17 18 19 16 14 1 3 5 5 8 8 14 20 21 10 3 3 2 2 3 3 3 3 5 6 3 6 4 3 4 8 8 6 13 9 7 2 8 7
25 24 22 21 20 19 18 20 17 21 5 2 4 15 30 17 15 22 20 13 4 2 2 2 3 3 2 3 3 3 2 2 3 3 9 5 11 7 12 11 3 6 8 8
28 25 22 21 20 18 15 3 18 23 23 2 3 5 5 10 13 14 8 7 4 3 3 2 2 4 1 2 2 5 6 11 7 3 7 11 12 7 4 10 11 10 11 9
30 27 25 24 20 24 6 4 3 26 22 2 3 4 4 9 6 3 2 7 2 3 2 3 3 2 1 2 3 5 9 11 11 9 2 5 12 4 11 14 12 15 14 13
31 28 26 23 20 21 15 5 2 26 7 2 2 4 3 6 3 1 3 3 3 4 2 2 2 2 3 2 5 9 13 11 10 8 8 7 7 7 9 11 7 9 8 7
27 24 20 18 13 6 12 15 21 18 3 4 3 3 3 1 3 2 2 2 2 3 3 3 3 2 2 5 8 10 12 11 13 9 12 11 11 9 6 6 6 7 6 6
19 33 5 3 12 22 21 4 1 1 3 2 3 3 3 1 1 2 1 2 2 2 4 3 3 2 6 7 10 9 10 12 14 9 12 13 11 10 6 7 6 6 6 6
13 3 2 14 36 8 2 4 5 3 3 4 5 7 3 1 2 2 1 2 1 1 3 4 2 2 3 8 10 10 10 10 11 10 9 10 9 8 5 7 8 8 8 7
13 16 21 13 3 3 5 5 3 5 5 4 4 5 5 1 3 3 0 2 1 4 0 2 2 3 6 8 10 10 10 10 12 13 11 11 10 10 4 5 6 8 10 12
23 5 3 4 2 5 5 6 3 3 3 4 2 1 3 1 3 2 1 2 4 1 2 2 3 4 6 7 6 8 10 11 10 11 13 12 10 11 8 6 7 9 10 12
3 3 6 4 4 4 4 4 4 3 2 5 4 2 2 1 2 2 3 4 1 2 1 2 2 4 5 5 6 6 7 7 6 7 9 10 10 9 10 9 8 11 11 12
3 2 3 2 2 2 1 2 2 3 0 3 3 3 3 2 3 2 1 2 3 2 1 1 1 3 4 5 4 3 4 3 4 5 5 8 9 9 10 11 12 15 16 16
3 5 2 2 4 2 3 2 2 4 2 1 3 3 2 2 4 3 3 2 1 2 1 1 1 2 3 2 3 3 4 4 4 7 10 11 10 10 10 15 16 16 17 17
4 3 3 2 4 4 3 3 3 3 2 2 2 3 5 1 2 3 3 1 2 2 1 1 0 2 2 2 3 3 5 6 8 9 10 10 11 13 14 11 15 20 21 22

GFSNW_925_spd_111.txt.gz
Wind_Speed
6 6 7 8 8 7 3 2 2 2 6 2 2 2 3 4 8 10 10 7 9 12 13 10 12 9 2 8 8 8 5 1 3 2 4 1 4 4 3 3 4 2 3 5
7 6 7 8 7 4 1 1 2 4 4 1 2 4 6 7 12 6 3 4 7 8 6 5 7 4 0 6 6 5 4 2 2 2 4 7 5 2 4 4 4 5 5 5
7 7 8 8 6 3 4 2 2 3 0 3 2 2 5 4 5 11 10 6 9 13 9 8 10 2 1 3 3 13 3 3 4 3 2 2 2 1 4 0 1 3 5 15
8 8 9 8 9 5 7 1 3 3 3 3 3 3 6 12 7 4 10 4 8 3 5 13 8 1 2 2 6 5 3 3 1 3 5 3 4 7 3 6 9 6 12 15
9 8 8 9 7 7 4 3 1 2 3 4 3 3 4 10 12 8 7 6 9 9 5 2 4 1 3 3 2 3 4 2 2 4 4 4 8 10 11 11 13 13 17 20
10 11 12 11 8 11 3 5 2 2 4 2 0 4 5 7 8 6 3 5 7 8 10 7 5 3 4 5 4 4 2 3 2 4 1 5 9 10 10 7 10 8 14 16
12 13 13 12 12 13 10 5 3 2 3 4 4 8 13 14 14 6 11 8 7 4 5 4 3 4 8 7 10 9 6 4 3 3 1 7 5 8 9 12 15 15 16 12
14 14 13 15 14 14 17 10 5 2 3 5 8 8 8 9 7 4 4 3 4 7 5 4 5 4 3 5 8 9 10 3 1 2 5 10 13 8 2 6 11 12 8 5
14 15 13 14 14 14 19 15 14 3 3 4 5 5 7 3 4 5 4 6 8 4 2 3 1 3 2 5 7 4 9 9 7 3 4 5 4 4 4 3 10 3 1 1
15 14 13 14 13 15 18 9 19 4 3 4 4 2 3 3 2 3 4 7 6 4 2 1 2 3 3 3 3 3 3 3 13 9 3 7 8 7 5 1 5 9 2 1
16 13 12 11 13 14 18 11 15 13 2 6 5 3 3 3 1 2 4 5 3 3 4 2 2 2 2 3 6 5 3 2 2 3 3 7 2 5 1 2 11 5 0 1
17 14 13 9 12 14 17 8 13 22 5 5 13 19 21 19 17 3 3 3 2 1 2 1 2 3 3 2 3 1 3 3 1 5 4 3 4 4 6 5 5 4 1 1
19 16 16 13 14 15 16 11 9 8 2 5 5 9 25 19 27 23 3 2 3 2 2 1 1 5 2 2 2 4 3 3 1 2 2 9 9 9 3 4 4 8 4 7
17 17 17 15 17 17 14 15 14 10 2 3 5 8 11 10 9 19 25 13 2 2 2 2 2 3 3 2 5 7 3 6 7 2 3 9 6 9 10 10 4 3 8 10
18 18 19 17 17 18 18 18 19 19 4 2 4 15 31 20 26 22 21 13 4 2 2 3 2 3 2 2 2 3 2 5 3 3 6 5 10 15 10 9 10 8 7 9
21 18 19 19 19 16 12 4 18 23 22 2 3 5 5 15 11 11 11 11 3 3 3 3 3 4 2 3 2 4 11 13 10 4 3 5 7 10 9 9 9 9 11 8
22 20 20 19 18 19 5 3 2 27 22 2 4 4 4 3 6 2 2 7 3 3 2 4 3 3 2 2 3 10 13 12 13 17 7 5 11 5 6 7 10 10 12 11
24 21 20 20 19 17 12 6 4 25 6 2 3 4 3 5 2 2 3 3 3 3 3 2 3 2 2 3 3 8 13 13 13 16 13 10 10 8 3 5 6 8 7 6
24 21 19 15 11 6 11 7 15 19 3 4 3 2 3 1 2 1 2 2 2 2 3 3 3 3 2 5 6 8 9 8 11 12 10 13 13 14 12 8 5 6 5 6
22 18 8 3 9 21 24 8 2 3 3 3 4 3 3 1 1 2 1 2 2 2 3 3 2 2 7 8 6 6 8 10 11 9 12 13 12 12 12 9 6 5 5 5
13 4 3 15 34 8 2 3 3 2 2 4 4 8 2 2 2 2 2 1 1 0 2 2 2 2 3 7 7 7 8 8 9 8 9 9 9 9 8 6 5 5 5 6
16 15 21 13 3 3 4 4 3 5 5 4 5 4 5 3 2 2 1 1 1 3 1 3 3 2 5 6 7 7 6 7 8 11 9 10 10 12 9 6 5 6 7 9
25 5 4 4 2 5 7 8 4 4 3 4 4 3 4 1 1 2 2 2 4 1 1 0 2 2 3 4 4 6 7 9 10 9 11 11 10 12 11 8 7 6 8 9
3 5 7 4 5 5 4 3 4 4 2 5 3 3 2 1 2 2 3 3 1 2 2 2 1 3 3 4 3 4 6 7 6 8 10 10 10 9 12 11 8 7 9 11
3 3 5 5 3 2 2 2 3 2 1 3 3 2 2 2 3 1 2 3 3 1 3 2 0 2 3 3 4 3 3 4 5 7 7 10 10 10 12 12 10 11 13 14
3 5 2 1 3 2 2 2 2 3 0 1 2 3 3 1 4 3 2 2 3 2 1 1 0 1 3 2 3 1 2 2 4 7 7 9 10 10 10 13 14 13 15 16
3 3 3 2 4 4 2 3 3 4 0 2 2 4 5 1 2 2 3 3 2 1 1 1 1 1 1 2 2 1 2 2 3 5 7 7 7 9 12 10 12 15 16 18

GFSNW_925_spd_114.txt.gz
Wind_Speed
1 1 1 3 6 7 4 2 3 6 5 2 1 1 2 5 3 4 7 5 7 6 4 4 4 6 7 4 3 6 3 2 3 3 7 3 4 3 3 3 3 2 1 5
3 3 1 3 4 3 1 2 2 5 2 2 2 4 4 4 5 5 4 4 4 3 3 5 5 4 5 7 4 2 5 4 4 1 2 5 6 3 4 4 3 4 3 5
5 4 2 2 2 1 1 3 3 3 2 2 1 2 4 4 6 6 8 8 7 8 5 8 5 3 7 7 5 12 2 4 4 4 3 0 2 1 3 5 3 2 5 12
7 5 3 2 1 3 3 2 1 1 2 3 2 3 4 10 5 4 3 4 9 7 5 3 9 5 12 7 4 3 1 6 3 4 4 3 3 4 6 7 6 5 13 9
6 5 3 3 1 8 3 3 2 1 3 3 3 3 3 10 10 4 5 5 11 5 6 7 3 1 5 5 2 2 1 3 1 7 3 5 5 7 10 8 10 8 16 20
7 7 6 4 5 12 3 3 0 3 3 2 0 3 3 8 13 8 9 9 5 7 10 9 14 11 6 6 5 3 2 2 2 5 2 4 7 16 13 7 9 9 11 18
9 9 8 6 9 13 6 5 4 2 3 2 3 5 12 14 12 13 13 9 3 4 12 9 6 7 10 8 10 7 3 2 2 3 3 6 6 2 3 8 13 10 14 15
11 11 10 9 11 14 14 9 5 3 3 4 8 6 6 14 10 3 3 3 5 8 5 3 4 3 4 5 7 10 14 5 2 2 4 9 9 9 4 4 6 9 15 15
13 12 10 9 11 15 17 14 12 3 1 4 4 3 7 5 4 5 4 5 7 5 2 3 1 2 2 5 7 3 5 7 4 3 4 5 5 1 2 3 7 8 15 3
15 12 10 10 10 15 19 7 16 4 2 4 3 3 2 2 3 4 5 7 6 4 3 2 1 3 3 3 3 3 2 3 13 11 4 6 5 8 2 2 4 4 10 6
16 13 11 8 10 12 21 9 15 12 2 4 6 4 4 2 1 2 4 5 4 4 3 1 2 2 4 4 5 5 3 3 2 2 2 6 4 4 3 0 8 7 10 7
16 14 12 9 9 14 15 6 13 20 4 5 4 11 16 13 15 3 2 3 4 3 2 2 2 2 2 5 4 3 4 1 3 3 3 3 6 5 7 1 4 5 5 5
16 15 14 11 11 12 17 9 11 10 2 7 6 10 22 21 28 26 3 2 4 2 4 1 1 4 2 3 3 4 3 5 2 2 2 8 10 5 4 6 10 8 4 6
18 16 15 14 13 13 11 12 12 7 2 3 6 7 12 12 11 19 27 12 0 1 2 1 2 2 3 3 7 6 3 6 7 3 5 9 2 9 6 6 3 9 8 9
17 15 14 15 13 12 13 16 17 17 5 2 5 16 30 19 26 21 20 17 4 2 1 2 3 2 2 3 3 2 5 4 3 2 7 4 5 7 10 12 12 8 8 9
18 15 14 15 14 11 8 2 19 23 20 2 3 5 6 13 10 14 13 13 3 3 3 3 3 3 2 2 3 3 7 10 9 6 15 8 6 10 11 13 10 11 10 10
16 16 15 15 16 14 6 2 3 18 21 2 3 4 4 3 4 3 2 9 3 3 2 3 3 2 2 2 3 6 10 10 9 15 15 11 15 9 9 10 9 13 13 10
16 16 15 14 12 12 13 24 9 23 6 2 2 5 4 5 2 2 3 3 2 3 3 2 2 2 3 3 3 6 9 9 10 16 11 9 10 13 14 9 7 8 8 7
17 16 13 11 11 6 5 9 19 17 3 3 3 3 3 2 1 2 2 3 3 3 4 3 3 2 3 4 5 8 11 9 13 13 9 12 12 13 13 12 10 6 5 5
18 15 7 3 8 13 19 10 4 2 2 3 4 2 3 1 2 1 1 2 1 2 3 2 3 2 8 7 6 6 9 11 12 12 14 15 13 13 13 11 8 6 4 4
12 4 3 7 27 7 2 2 2 3 3 4 4 8 4 2 2 2 2 2 1 1 1 2 2 2 3 6 7 5 6 7 9 9 8 9 10 10 10 10 8 7 6 4
17 11 15 14 3 3 4 5 3 5 5 3 4 4 5 2 1 2 1 1 2 3 0 2 2 3 5 5 5 6 6 8 9 10 9 11 10 12 11 9 9 8 6 6
19 5 4 4 2 4 8 8 4 5 3 4 3 3 3 1 1 1 1 2 4 1 0 1 2 3 4 4 4 4 7 10 11 10 11 12 11 11 12 10 9 6 7 7
3 5 7 5 5 6 4 4 5 4 3 4 3 3 3 1 2 1 2 3 1 2 2 2 1 3 3 3 4 5 7 8 6 8 10 10 10 10 12 12 9 6 8 9
3 4 6 5 2 1 2 2 3 2 2 3 2 2 1 1 2 2 1 2 3 2 2 1 1 2 3 3 4 3 4 5 5 8 8 10 10 10 11 13 10 8 9 11
3 5 2 2 3 1 2 2 2 2 1 1 2 2 2 1 3 3 4 2 3 2 1 1 1 2 3 3 3 1 1 1 2 5 6 7 9 9 7 11 12 10 10 12
4 2 3 2 4 3 2 2 2 4 1 2 2 3 5 2 2 1 3 3 2 1 1 1 1 1 2 3 3 2 2 1 2 3 5 5 5 5 8 9 9 10 11 12

GFSNW_925_spd_117.txt.gz
Wind_Speed
6 4 4 2 4 3 4 3 3 9 6 3 2 2 2 5 4 5 5 4 7 8 6 5 5 6 5 14 9 8 2 2 4 11 4 2 3 1 3 4 5 1 1 3
5 5 4 2 2 1 1 3 1 5 4 3 2 3 3 3 2 3 3 4 5 3 6 5 8 9 8 10 8 3 5 1 3 6 4 9 5 5 4 3 2 3 3 3
5 6 4 1 1 2 3 3 2 3 3 1 2 2 2 4 4 8 6 8 9 11 10 10 7 8 7 10 11 16 3 5 5 5 9 3 6 5 4 2 1 1 7 12
7 7 3 3 3 4 3 3 1 1 2 2 2 2 3 6 5 4 4 4 8 9 5 7 12 13 13 12 6 5 3 10 10 13 9 7 7 9 7 10 8 7 12 11
9 7 5 5 4 8 5 3 3 1 0 1 2 2 1 7 6 4 7 9 12 9 8 5 15 5 3 5 3 1 1 8 3 8 6 9 12 11 12 15 13 15 18 20
9 8 7 6 6 10 3 2 2 3 2 1 0 1 2 9 13 7 9 10 7 11 10 8 15 14 12 13 9 10 3 3 4 13 8 7 8 20 17 17 15 14 15 19
10 8 8 7 10 11 6 4 5 3 0 1 2 4 10 10 14 8 12 8 5 7 15 15 10 11 15 15 17 12 9 5 3 6 3 9 11 4 5 11 15 11 16 20
6 8 9 9 10 13 9 9 5 2 1 3 7 6 4 10 9 5 8 5 8 10 6 4 6 2 2 5 9 8 14 8 4 3 7 11 14 15 10 9 14 6 10 13
11 7 11 10 9 15 14 11 8 4 2 2 3 2 4 5 6 5 4 7 9 5 2 2 3 3 4 4 8 5 4 11 7 4 5 5 3 3 2 3 10 2 4 8
12 9 11 10 9 17 16 7 12 5 2 3 4 3 2 2 2 4 5 10 7 4 5 3 2 3 4 3 3 4 3 2 11 12 5 6 5 11 4 4 3 5 8 10
13 13 12 11 9 16 19 8 16 9 2 5 5 3 5 4 3 3 5 5 3 4 6 3 3 3 3 4 7 7 4 3 1 2 4 5 8 6 2 6 6 11 11 7
13 15 13 11 10 15 19 6 13 16 3 3 3 12 15 14 17 3 1 2 5 2 2 2 2 2 3 5 4 3 3 3 3 3 3 3 4 7 10 4 4 9 9 10
17 16 14 12 10 17 18 9 11 10 2 5 8 10 13 17 27 22 4 2 4 3 3 2 2 4 1 3 4 6 4 6 3 5 2 7 12 7 6 6 7 7 9 10
19 17 16 14 13 13 14 11 14 7 1 2 5 7 10 11 11 18 28 11 0 1 2 2 3 3 2 3 7 9 4 7 9 5 4 12 10 12 10 12 13 12 12 12
20 18 17 15 14 12 11 9 11 14 2 2 5 13 26 14 17 20 21 18 7 3 2 3 3 2 3 3 3 3 4 6 4 3 14 2 5 8 10 13 13 11 10 11
20 17 16 14 14 11 9 1 13 21 16 2 3 4 5 4 10 17 15 13 4 3 3 3 3 3 2 3 3 3 5 8 6 5 11 10 11 12 9 9 8 9 10 9
18 17 15 13 15 16 5 3 3 5 20 2 3 4 3 2 4 3 3 9 3 3 3 3 3 3 2 2 3 7 10 11 9 14 13 9 14 7 12 9 8 10 10 10
18 17 12 13 13 13 10 19 7 13 6 2 2 4 4 3 1 2 4 4 4 4 3 2 3 2 3 4 4 8 12 11 9 15 10 7 8 10 12 14 10 9 8 8
17 13 13 8 6 4 5 8 9 17 5 3 3 2 3 2 1 1 2 3 3 3 4 3 4 3 4 4 5 8 9 9 12 13 9 12 12 12 13 12 12 9 8 7
18 14 6 2 9 12 15 8 5 3 3 3 4 3 4 0 0 1 1 2 2 3 3 3 3 2 7 7 6 6 9 10 11 8 12 14 13 12 12 12 9 9 7 6
12 6 3 5 25 8 2 3 4 4 3 4 4 8 4 2 3 2 2 1 1 2 2 2 3 3 3 6 6 7 8 9 9 8 8 9 9 10 10 11 10 11 10 8
12 9 10 10 4 3 4 3 3 5 5 4 4 5 5 2 1 2 1 2 0 2 0 2 2 2 4 5 7 7 8 10 10 12 10 11 11 12 11 10 11 10 8 6
10 5 4 4 3 4 7 8 4 4 3 4 5 3 3 1 2 1 1 2 3 0 1 1 2 5 4 5 5 5 8 10 10 11 11 11 10 11 12 11 11 8 6 5
3 5 7 5 5 5 5 5 6 4 3 6 4 3 2 2 3 1 3 1 1 2 2 1 2 3 3 3 4 5 7 7 7 9 10 10 10 10 10 11 10 7 5 4
3 4 6 7 3 1 1 2 3 0 3 6 3 2 2 1 2 2 1 2 3 1 0 2 2 2 3 3 5 5 5 5 5 5 6 8 9 8 9 12 10 7 5 4
1 3 3 2 4 2 2 3 3 1 3 2 2 2 2 2 2 3 3 2 3 1 1 1 1 1 2 2 3 3 3 3 4 6 7 8 9 8 6 8 10 8 6 6
2 0 2 2 3 3 2 2 2 4 2 3 3 4 5 2 2 2 1 1 2 1 1 1 2 1 1 2 3 4 3 2 2 3 5 6 7 5 6 8 7 6 6 7

GFSNW_925_spd_123.txt.gz
Wind_Speed
13 11 8 4 3 1 2 3 2 6 7 1 1 4 3 0 2 1 3 6 10 11 13 15 17 18 16 14 13 16 17 8 12 20 11 4 6 5 2 6 17 14 16 8
13 12 10 5 3 3 3 2 3 3 6 2 3 4 3 1 2 2 3 8 9 11 15 16 13 15 12 12 14 9 10 6 9 14 15 9 2 3 1 6 3 10 13 5
13 11 9 5 3 3 3 1 3 2 3 4 6 3 2 1 1 6 5 9 12 12 14 14 9 15 10 11 15 17 8 15 16 12 15 5 14 7 10 7 7 8 8 7
13 11 8 5 4 3 0 2 0 2 4 3 4 2 4 2 3 2 7 5 6 14 8 15 13 16 17 18 20 12 13 16 17 18 22 21 17 16 11 10 13 14 16 6
14 12 8 7 6 5 1 2 3 3 6 5 4 3 3 1 4 1 5 7 13 13 10 7 15 19 17 11 13 10 8 8 16 17 18 21 21 20 15 15 14 17 18 19
15 12 9 9 8 2 2 1 1 2 3 4 5 4 3 2 4 4 4 6 11 13 14 19 21 20 19 18 17 16 14 12 12 15 16 13 14 17 18 18 16 14 16 17
15 13 10 9 9 1 2 3 3 2 5 5 3 5 3 3 4 6 8 6 10 13 19 21 18 19 17 13 14 13 15 16 12 13 17 15 13 7 12 11 12 16 17 17
17 14 11 9 9 5 2 4 2 2 3 3 5 5 5 5 5 8 6 6 10 12 15 9 9 7 4 6 7 7 8 10 7 5 9 15 17 9 12 13 13 13 14 15
17 14 12 11 9 9 4 5 1 2 2 3 4 4 3 5 3 4 1 6 11 8 7 7 9 4 9 5 9 4 10 12 10 11 5 4 2 3 7 12 11 13 14 15
17 14 14 13 10 10 5 4 1 2 1 4 3 4 2 1 3 5 3 9 6 6 7 6 5 8 10 7 8 10 12 8 10 10 7 6 14 17 12 6 5 12 13 14
18 13 15 15 12 12 7 5 5 1 1 1 5 4 6 5 4 4 7 5 6 5 5 4 5 4 6 5 11 6 5 8 6 5 5 2 21 13 11 12 16 12 12 11
21 15 16 16 13 12 10 3 5 3 3 3 3 6 9 9 9 6 3 4 4 1 3 4 4 6 5 7 6 5 4 5 6 6 6 12 13 7 12 15 10 10 9 9
27 20 15 16 14 13 14 6 6 3 1 6 10 9 13 13 14 12 5 2 2 2 4 4 3 4 7 6 6 7 4 7 3 10 8 14 10 12 13 11 9 9 8 11
24 19 17 17 15 14 14 7 7 4 3 3 2 3 7 7 12 14 16 14 5 4 5 4 4 5 6 9 10 12 5 6 11 4 6 14 9 11 9 9 11 11 12 12
20 16 17 16 15 14 14 6 6 5 4 3 5 13 13 12 19 14 14 15 9 6 3 3 6 5 6 7 9 2 5 3 4 4 10 8 7 12 15 15 16 15 14 14
20 19 18 16 14 18 7 1 7 8 7 3 3 4 4 5 7 14 12 11 7 5 2 4 4 10 4 3 5 2 6 2 1 6 15 13 8 9 15 15 13 11 12 12
20 18 19 18 16 16 3 1 4 10 8 2 3 4 5 4 4 6 5 8 3 2 2 5 8 9 3 3 9 4 6 6 2 10 12 7 12 10 11 12 14 12 13 13
22 20 18 17 15 8 5 4 5 12 4 1 2 4 4 8 5 4 5 4 3 4 4 4 5 3 4 4 5 5 7 6 3 10 6 7 8 9 11 13 14 12 11 11
22 21 17 14 7 5 3 6 3 5 1 2 3 3 1 4 2 2 3 3 4 4 6 4 4 4 4 4 4 5 7 7 9 11 6 10 10 12 13 13 13 13 12 12
25 19 5 3 6 6 12 5 4 3 2 3 4 7 5 3 1 2 2 3 3 3 6 3 4 2 6 5 4 4 5 7 9 10 11 12 12 13 14 13 12 11 11 13
9 5 4 8 19 9 4 4 4 4 4 5 6 11 8 4 3 2 3 2 2 3 3 3 4 3 4 3 3 4 6 7 7 8 8 9 10 11 12 12 13 15 15 13
10 9 10 9 4 3 5 5 4 6 5 6 5 4 6 3 1 3 2 3 2 4 4 2 2 3 4 3 3 4 6 7 7 8 9 11 11 12 13 13 14 15 14 13
10 4 4 4 5 7 6 9 4 5 4 4 6 4 4 3 5 2 2 4 4 2 2 2 3 5 3 3 3 4 6 8 8 8 9 11 12 12 13 13 14 14 13 13
3 5 6 5 6 6 5 7 7 5 3 6 7 4 3 3 5 3 4 3 2 3 3 2 4 5 3 3 2 2 4 6 6 8 10 11 13 13 12 12 13 14 13 13
2 4 6 8 5 1 2 2 4 3 5 7 5 3 4 3 3 4 3 3 4 3 2 3 5 4 3 3 3 4 4 4 5 7 8 9 10 11 12 12 12 12 12 11
2 4 4 1 3 3 3 3 3 3 6 5 3 3 3 5 3 5 6 2 3 3 3 4 5 4 2 2 2 3 3 4 5 6 7 9 9 11 12 12 9 12 10 10
3 2 1 2 2 3 3 2 3 2 3 4 3 5 6 2 3 4 1 1 3 5 4 4 6 3 3 1 1 2 4 6 6 7 7 8 9 10 10 10 11 11 9 9

GFSNW_925_spd_126.txt.gz
Wind_Speed
14 12 9 6 4 5 4 3 1 3 4 3 3 2 3 2 1 2 1 3 6 9 12 14 16 17 16 13 14 13 15 10 15 20 23 3 7 8 2 2 6 9 13 14
14 11 8 6 5 4 5 3 3 1 2 1 3 1 3 2 2 3 4 5 6 8 12 11 11 15 17 19 21 7 7 5 6 12 10 3 6 15 5 6 4 9 3 3
14 13 10 6 6 4 2 1 2 3 4 2 5 3 2 2 2 3 2 6 8 8 12 13 8 11 7 11 6 22 20 16 17 14 18 5 10 14 10 4 4 11 8 15
14 13 10 7 7 5 2 3 2 1 3 2 3 4 5 3 1 0 5 3 7 9 6 13 9 16 16 17 11 14 12 12 16 19 20 21 17 17 16 12 11 11 14 13
13 12 9 6 8 6 2 3 1 3 6 5 6 1 3 2 4 2 5 5 10 10 10 7 15 18 17 17 13 7 3 2 6 13 21 17 17 19 18 17 14 14 12 15
13 11 7 7 9 5 2 1 3 1 3 5 5 4 3 5 4 4 3 6 8 11 13 16 18 18 19 18 17 14 11 9 11 10 15 19 15 13 16 14 13 12 9 11
15 12 8 9 10 3 7 4 2 2 4 6 3 5 5 5 5 5 7 6 8 11 17 18 17 18 14 15 10 15 8 11 8 10 11 11 5 12 18 11 5 10 10 12
15 12 10 9 10 2 6 1 1 1 3 4 5 5 4 7 8 10 7 5 7 11 13 11 10 9 4 8 5 8 10 8 5 4 8 13 11 11 13 13 11 16 16 21
17 13 10 8 9 3 4 5 6 2 2 2 5 7 6 6 4 6 3 2 9 6 7 8 8 3 10 5 9 12 14 6 7 6 5 4 12 23 22 16 5 17 16 14
17 14 11 9 8 5 6 2 5 4 1 5 2 2 1 3 3 3 1 6 6 6 5 4 4 6 10 6 9 9 9 9 9 4 5 5 18 21 18 5 8 15 14 8
16 14 12 10 8 6 5 5 3 7 1 0 2 2 3 1 3 5 5 1 5 5 6 4 5 4 5 5 8 4 5 8 6 5 6 5 18 9 8 8 10 10 9 10
16 12 13 11 9 7 3 4 3 3 3 1 5 7 8 8 6 5 4 4 2 2 3 4 4 5 4 8 4 6 3 4 5 5 3 3 3 4 6 7 8 9 11 14
18 13 12 11 10 9 5 2 3 1 2 5 7 8 11 12 10 7 4 3 4 5 5 2 3 3 6 6 5 6 3 4 2 10 5 12 3 8 9 7 8 11 12 13
18 18 13 12 11 9 10 2 3 3 3 2 1 1 8 5 8 9 12 9 8 5 3 4 4 5 7 7 9 9 1 2 6 5 5 12 11 9 10 9 9 9 11 12
19 20 15 14 11 9 7 4 2 3 3 3 5 9 11 12 10 9 10 8 6 5 3 2 4 5 5 6 7 1 2 3 3 3 7 7 7 8 12 11 12 11 12 13
23 18 16 15 12 8 4 1 6 3 2 2 3 6 5 7 5 11 16 10 5 5 3 3 4 9 3 3 4 3 6 4 4 3 10 6 9 9 11 12 11 11 12 11
21 17 17 14 11 15 1 2 2 5 4 2 3 4 2 5 4 7 6 10 3 4 2 4 8 9 3 3 7 4 4 4 1 6 7 7 11 9 11 11 14 13 14 15
19 17 15 13 12 2 2 3 5 8 3 2 2 3 5 11 4 3 3 3 2 2 3 5 6 4 4 3 6 4 6 6 3 9 6 8 9 11 11 14 14 12 12 13
19 15 15 11 4 3 3 7 5 2 1 1 3 3 1 5 4 3 2 3 4 4 5 4 4 3 5 3 5 4 5 6 8 9 9 10 10 11 12 13 13 12 12 12
21 18 4 3 5 11 12 2 2 1 1 3 3 7 4 1 1 2 3 3 3 3 7 4 4 1 7 6 4 3 5 7 8 8 10 10 11 11 12 12 11 11 11 14
9 5 3 10 18 6 3 3 4 4 3 4 5 9 8 4 3 2 4 2 2 3 2 4 4 3 4 4 3 5 6 7 8 8 9 10 10 10 11 11 14 14 15 13
10 10 13 8 4 2 4 4 4 5 4 6 6 5 8 3 1 1 2 2 1 4 5 2 1 3 5 5 5 6 8 7 8 10 10 12 13 14 13 13 14 14 14 14
14 4 3 3 4 6 6 8 4 4 3 3 4 3 1 2 2 0 1 3 5 3 2 1 3 7 5 5 4 7 9 10 9 10 10 11 12 12 12 12 13 13 13 13
2 4 6 5 5 6 6 7 8 4 3 5 7 4 2 2 3 2 4 4 3 3 3 2 4 7 6 5 3 3 8 7 5 7 9 9 11 11 10 9 10 13 12 15
3 3 5 7 5 3 4 2 2 4 4 5 5 3 3 3 3 4 4 3 4 3 3 3 5 6 5 5 5 6 5 3 5 5 5 6 7 8 10 9 5 10 9 13
2 3 4 4 4 2 1 2 2 2 1 3 3 3 3 5 3 5 6 3 2 3 3 4 6 6 6 5 4 5 4 4 5 5 6 6 6 9 10 9 2 10 6 10
2 1 2 4 1 3 2 2 2 4 2 3 2 4 7 3 3 4 1 3 4 5 5 6 8 7 6 2 1 4 3 5 4 7 8 7 5 12 10 11 10 13 5 7

GFSNW_925_spd_129.txt.gz
Wind_Speed
22 17 12 10 9 9 6 2 2 5 5 2 3 2 3 2 4 5 3 1 3 5 6 5 5 7 8 10 8 7 6 4 8 12 14 13 6 4 3 4 4 2 3 2
19 16 12 9 9 7 2 2 3 3 1 2 1 2 5 3 0 5 4 4 4 3 4 4 6 5 5 5 5 4 5 3 6 7 3 5 6 10 4 2 3 3 3 4
17 15 11 8 8 7 1 1 2 1 1 2 5 4 3 5 3 1 1 3 3 5 5 6 6 6 6 8 11 4 5 2 8 10 12 9 4 18 17 6 2 3 4 11
17 14 12 8 8 5 1 2 2 4 2 3 5 3 4 2 3 1 4 1 10 5 3 6 5 11 11 9 13 3 1 2 7 9 12 14 16 17 10 11 7 5 8 8
20 17 12 9 8 5 1 3 3 2 3 6 7 3 4 3 7 3 2 4 4 4 3 2 7 10 6 5 6 7 0 3 3 8 12 12 12 12 12 7 14 6 8 4
17 14 12 10 9 1 2 2 2 4 1 3 4 4 4 9 4 3 1 3 3 5 4 6 11 11 15 10 10 5 4 3 3 4 7 13 5 6 12 14 6 7 6 10
17 14 10 12 8 3 4 3 3 4 2 3 4 8 8 7 6 3 3 5 2 5 8 11 10 1 6 5 4 7 4 3 2 3 5 2 8 18 11 14 22 19 15 14
17 13 12 12 7 4 4 7 4 2 2 5 6 8 5 4 4 3 4 3 3 5 7 3 5 4 1 3 5 3 5 1 3 1 2 7 17 17 11 11 7 19 12 14
16 13 13 12 6 4 8 10 9 2 3 3 9 6 5 3 1 2 3 5 4 3 1 2 3 1 3 4 7 7 8 4 1 0 2 3 8 17 18 13 2 17 13 12
16 14 13 11 7 9 10 10 13 1 3 4 6 3 2 1 3 2 4 3 6 5 2 2 2 2 4 3 4 5 5 4 3 4 2 4 13 19 16 5 6 16 13 11
16 14 13 11 9 9 12 12 14 7 3 4 6 4 3 4 4 3 4 4 4 4 5 3 3 2 2 2 1 3 2 3 3 3 5 4 13 6 6 4 5 10 9 9
15 14 14 13 11 10 12 7 10 10 5 1 6 6 6 5 8 3 5 2 0 3 3 3 2 2 3 2 2 1 3 2 3 3 2 1 2 1 4 5 5 5 7 8
15 14 15 13 11 9 11 11 8 6 3 3 1 4 6 6 4 2 3 3 4 3 2 2 2 1 1 1 3 2 2 0 2 3 3 8 2 4 6 7 6 8 7 11
15 12 13 14 10 11 9 7 5 4 0 2 3 8 6 9 8 9 6 2 3 2 2 2 1 1 2 2 5 2 2 1 3 2 4 5 8 6 6 7 8 7 8 11
15 13 12 13 11 8 6 3 4 6 3 1 3 14 9 10 10 10 10 7 1 2 2 2 2 2 2 3 2 1 1 1 1 1 4 4 3 4 4 7 9 9 10 11
17 17 12 12 10 10 4 3 3 3 3 3 2 6 4 10 17 14 12 10 3 3 2 2 3 5 1 1 2 3 4 4 3 2 2 1 8 3 6 6 8 8 9 13
22 16 14 13 10 8 4 2 3 4 4 2 3 4 4 10 11 4 2 8 2 3 2 2 2 3 0 1 3 6 4 5 6 3 3 1 5 5 9 10 12 13 15 15
20 17 15 13 12 6 4 5 7 8 0 0 1 3 3 6 2 1 1 2 2 2 2 2 2 2 2 3 5 8 6 5 8 6 8 6 9 11 10 13 13 10 10 11
19 18 18 14 3 2 4 8 9 4 3 1 2 1 1 4 2 3 2 2 1 2 2 3 2 2 3 3 5 7 6 5 5 6 10 10 10 10 10 10 10 8 8 10
25 19 5 2 4 10 12 3 2 2 2 1 3 2 2 1 1 2 3 2 2 2 5 2 2 1 5 6 6 7 6 8 7 6 8 8 7 8 9 9 10 10 10 12
8 4 2 8 19 3 2 2 1 1 2 3 3 5 2 2 2 2 3 2 2 2 2 3 3 3 3 5 8 8 7 10 9 11 12 11 9 8 8 9 12 13 14 13
11 13 14 8 2 2 2 3 1 4 4 4 3 4 5 3 3 3 3 2 1 5 3 2 1 2 5 7 11 9 11 10 11 14 11 11 11 10 9 10 11 12 12 16
16 4 3 3 2 3 5 5 3 2 3 2 2 2 2 3 2 2 2 2 4 2 2 2 2 5 4 8 10 10 12 12 11 11 10 9 9 9 8 8 7 11 11 15
3 4 6 4 4 4 4 4 4 5 3 4 4 2 2 1 2 2 2 4 2 3 1 2 3 5 7 6 8 10 7 7 7 7 6 6 7 7 9 7 5 11 10 15
3 3 4 5 3 1 1 2 2 1 4 4 3 2 2 1 2 2 2 2 4 4 2 2 4 7 8 7 7 7 6 5 4 5 3 3 5 9 11 10 4 10 10 13
1 1 1 2 1 1 2 3 2 4 1 2 2 2 2 3 3 3 6 3 3 2 2 3 7 9 7 6 6 8 4 3 6 4 3 3 6 11 12 9 3 12 9 12
0 1 2 1 0 2 2 3 3 9 2 2 2 3 7 1 2 3 3 2 1 5 5 5 7 7 5 6 8 6 5 6 5 6 7 6 1 6 10 12 14 13 7 13

GFSNW_925_spd_132.txt.gz
Wind_Speed
29 25 21 18 17 16 13 5 2 13 13 3 2 2 4 3 5 3 3 4 6 4 5 2 2 2 3 1 1 3 1 3 4 6 12 3 11 8 3 2 5 3 5 3
31 26 21 18 18 17 7 4 3 8 6 3 1 3 3 5 4 6 3 3 5 3 2 1 2 4 4 7 6 3 3 2 4 5 2 2 3 6 5 4 3 4 2 5
28 23 19 16 17 17 5 2 3 1 1 2 6 6 4 4 4 4 4 3 6 4 3 1 3 5 4 9 5 4 1 2 4 5 10 7 10 11 13 10 4 8 8 8
25 22 18 14 16 10 5 2 3 4 3 1 6 5 4 8 4 2 2 4 5 3 2 3 1 3 4 5 3 2 2 4 5 9 13 13 12 11 11 11 6 4 12 2
26 21 17 16 15 10 3 3 3 3 3 5 9 5 4 6 7 4 2 5 3 2 2 5 5 3 2 5 3 6 1 3 2 6 11 9 8 13 14 11 14 10 8 8
23 20 16 16 14 7 2 1 0 4 2 4 5 4 5 5 6 1 6 5 2 2 5 6 8 7 6 9 4 2 2 2 3 4 5 6 3 13 9 4 11 8 10 7
22 18 16 16 9 5 5 3 2 4 2 4 4 10 8 7 4 5 2 3 5 4 3 4 1 2 4 4 4 4 3 2 1 4 5 2 4 13 6 10 14 16 14 14
20 17 16 15 9 11 14 6 3 3 3 4 10 10 6 6 5 3 2 2 4 1 4 3 3 1 2 2 3 4 6 2 2 2 2 0 9 13 10 8 4 15 14 16
19 18 17 13 10 12 13 18 7 4 6 2 10 7 6 4 3 1 4 2 7 6 2 3 1 1 2 3 7 6 5 2 2 2 2 1 1 15 15 5 2 15 15 15
18 19 17 13 13 15 13 15 8 5 4 4 5 4 5 3 3 3 3 2 4 4 3 2 2 1 1 1 2 4 4 4 2 3 2 0 8 16 12 4 5 14 12 10
19 18 17 16 14 13 14 13 16 5 3 3 6 4 4 4 3 4 2 4 4 3 3 2 2 1 2 2 1 2 0 2 2 2 4 4 11 7 5 3 4 8 7 7
19 18 19 17 16 13 12 7 13 14 6 3 3 7 8 7 4 5 3 5 3 3 3 1 2 2 2 1 1 2 2 3 2 2 1 2 2 3 4 4 4 4 5 5
19 18 19 20 18 16 16 16 9 9 3 4 5 1 6 8 5 4 4 2 1 2 4 3 2 1 2 1 3 0 2 2 3 2 2 2 2 0 5 6 6 6 4 7
21 20 19 20 19 17 18 18 12 8 5 4 3 3 3 8 7 5 7 5 5 4 3 2 2 1 2 2 4 3 4 3 2 2 2 2 3 2 4 4 5 6 6 6
22 20 18 18 17 16 17 17 14 11 4 3 1 8 2 12 10 10 8 6 3 3 2 2 2 2 1 2 1 2 2 3 2 3 2 2 2 5 4 3 4 6 6 7
20 19 17 16 15 14 6 3 8 7 3 3 2 5 2 11 11 11 9 6 2 2 3 2 3 3 2 1 2 2 3 3 4 3 4 5 5 7 8 6 6 7 7 8
20 19 18 16 13 9 6 4 3 3 3 3 2 3 4 10 7 2 1 2 2 3 1 1 2 2 2 1 2 3 4 5 3 2 2 2 8 4 7 10 10 11 11 11
20 20 19 17 17 12 8 8 7 5 4 4 3 2 3 4 1 2 2 2 2 1 2 1 2 2 2 2 2 4 7 8 7 8 9 6 7 10 10 11 11 7 7 8
23 22 21 13 4 3 5 10 7 8 5 3 2 3 3 1 2 2 2 2 1 1 2 2 3 2 4 5 7 5 4 5 6 8 8 8 9 7 7 8 7 7 8 8
28 20 4 2 4 15 12 3 3 4 3 2 1 0 1 2 1 2 2 1 1 2 4 1 2 2 2 6 7 7 7 6 4 3 4 5 5 6 6 7 8 9 10 11
7 3 2 8 17 3 3 3 2 1 2 1 3 4 1 2 3 3 3 3 1 2 3 3 3 3 4 9 9 7 10 13 12 12 10 8 6 5 6 7 10 11 12 12
8 15 16 7 2 2 4 1 1 2 3 3 3 4 4 3 2 3 2 2 1 4 3 2 1 2 8 10 10 9 11 13 12 12 10 8 6 6 5 7 7 11 11 15
9 5 3 3 1 5 4 4 2 1 2 3 2 1 3 3 3 3 2 2 4 2 1 2 1 4 6 10 8 8 11 13 12 9 8 6 5 5 5 6 8 12 12 14
3 3 4 2 2 3 3 3 3 4 3 4 4 2 2 0 3 2 2 4 2 3 1 3 2 6 7 8 6 7 6 8 8 6 4 3 6 6 6 6 6 10 12 14
2 3 3 3 3 0 1 2 1 4 2 4 3 3 2 2 3 1 1 2 4 4 3 1 2 7 9 9 7 6 6 7 6 4 3 0 4 8 8 6 5 11 12 11
3 3 3 1 3 1 3 3 2 3 1 2 3 2 3 2 3 2 5 2 4 2 1 3 6 7 7 7 6 8 7 7 7 2 1 2 3 5 6 8 9 10 9 12
3 1 2 2 2 3 2 2 2 7 2 2 2 4 6 2 1 3 1 3 1 2 3 3 4 5 5 7 9 7 7 8 3 3 3 1 0 5 7 9 10 9 13 9

GFSNW_925_spd_135.txt.gz
Wind_Speed
51 46 41 36 32 28 20 6 3 14 18 3 2 4 5 5 2 2 3 4 6 3 3 3 3 2 3 4 1 3 2 2 3 7 12 7 3 2 3 1 5 3 3 4
51 47 40 36 33 33 12 4 3 6 6 4 2 2 4 4 3 3 2 3 4 4 3 4 2 3 2 3 0 2 0 2 4 7 5 2 3 4 8 4 3 4 1 4
49 42 39 36 34 30 11 3 3 1 1 2 6 6 4 5 3 4 5 4 6 5 3 4 2 1 2 6 1 7 3 3 5 6 9 3 6 10 13 7 3 5 7 9
41 38 37 35 34 24 8 2 4 5 5 3 6 4 4 8 4 3 4 4 4 5 3 2 3 0 5 4 3 3 2 4 6 13 15 11 12 7 11 4 3 3 7 4
37 33 30 33 31 19 4 4 4 2 2 5 9 3 5 7 4 4 2 6 6 5 4 5 3 2 3 4 1 3 1 3 2 8 13 9 3 8 9 4 8 5 4 3
35 30 28 30 26 15 4 3 1 4 1 3 4 4 6 7 6 4 6 8 5 3 4 7 8 8 5 5 2 1 1 2 2 4 4 4 3 8 8 8 7 8 6 10
30 26 25 25 20 14 4 5 4 4 2 4 4 7 9 9 4 6 5 5 4 3 3 1 1 4 5 4 5 5 2 2 2 3 4 1 4 4 7 3 7 12 10 12
27 24 24 21 14 10 8 5 3 3 3 6 10 13 7 8 6 5 4 3 3 4 4 3 3 3 3 4 4 5 6 2 2 1 2 2 4 4 6 4 3 11 12 13
26 25 23 18 18 15 15 11 6 5 7 1 7 7 8 5 4 3 3 4 4 6 3 2 2 2 1 2 6 1 3 2 3 2 2 3 1 10 12 5 3 10 13 12
25 25 20 16 17 13 10 10 7 7 4 3 4 4 6 5 4 4 3 2 3 4 2 2 2 1 1 1 1 3 3 3 1 2 1 4 4 13 8 2 4 9 8 6
26 23 18 18 19 13 16 13 9 7 3 3 4 3 5 4 3 4 3 4 4 3 3 2 2 2 2 1 2 3 3 1 2 2 3 4 7 3 4 4 4 4 5 6
25 22 18 18 15 14 16 9 19 17 6 4 7 14 10 6 6 5 3 4 3 3 4 0 2 2 2 2 2 2 1 4 3 4 3 2 2 1 4 4 4 4 4 5
25 24 19 16 12 12 18 16 13 16 4 4 5 4 6 8 9 6 4 1 4 2 3 3 2 1 3 1 3 1 2 2 2 2 2 2 0 1 2 3 5 5 4 5
25 25 22 20 18 18 18 15 12 12 5 4 1 4 5 7 6 10 10 9 6 6 3 3 2 1 3 2 3 3 5 5 2 3 2 3 4 3 4 5 2 4 5 6
25 25 24 23 23 25 28 27 20 11 6 4 3 2 4 9 10 12 13 13 4 3 2 2 2 1 1 1 1 3 4 4 3 4 3 3 2 5 4 4 4 5 5 6
24 23 22 22 23 15 6 4 11 11 7 4 3 2 2 4 9 11 10 8 3 3 3 2 2 3 2 1 2 3 2 2 4 3 4 2 5 7 8 5 4 6 6 7
24 22 20 17 10 7 8 4 5 7 6 3 3 2 3 5 4 2 3 4 2 2 2 1 1 2 3 2 2 2 4 4 3 3 5 3 4 3 6 7 6 7 7 8
25 24 24 23 19 13 12 13 8 6 9 4 3 0 2 3 1 2 2 2 2 3 1 1 2 2 1 2 3 3 6 8 8 8 8 6 8 7 6 8 9 7 8 10
27 25 21 15 7 4 5 9 10 13 6 3 3 4 3 2 2 2 2 2 2 1 1 2 3 2 4 4 6 6 3 3 8 7 7 6 6 5 5 5 7 7 8 10
28 14 6 3 3 15 7 4 4 4 3 3 2 0 2 3 1 2 2 1 1 1 3 2 2 3 1 3 6 6 6 7 6 4 2 2 3 5 6 6 7 8 9 12
3 3 2 7 11 2 3 3 3 1 3 1 1 1 3 1 3 3 1 2 1 1 2 3 2 3 4 6 8 6 9 11 9 10 9 7 5 3 4 5 7 9 10 10
6 15 12 6 3 3 4 1 2 0 2 2 4 3 3 0 2 3 0 3 1 3 2 2 3 1 9 9 9 7 9 11 10 9 8 6 5 4 3 4 5 8 10 13
10 5 4 3 2 5 4 4 1 0 3 3 2 1 2 2 3 3 3 3 3 1 2 3 3 5 7 8 7 7 9 11 10 8 7 6 5 4 3 4 6 9 12 13
3 3 3 3 1 2 2 3 3 3 3 4 3 2 2 0 3 2 3 3 2 2 2 4 2 3 7 7 6 7 6 7 7 6 4 4 4 4 6 6 8 8 13 14
3 3 3 3 2 1 1 0 1 3 1 4 3 3 3 2 3 0 3 3 3 4 4 2 2 5 7 7 6 6 5 7 5 4 2 1 2 4 7 8 7 10 10 12
3 4 3 2 3 2 2 2 3 3 1 2 3 2 3 1 3 2 4 3 5 4 2 1 5 5 5 5 5 7 9 8 7 3 2 3 2 3 4 8 9 8 10 9
3 2 1 2 3 3 1 2 1 4 2 2 3 3 5 1 2 2 3 4 3 3 3 3 3 5 5 7 9 9 8 8 5 3 2 2 3 4 6 8 7 8 8 6